Darstellungsparameter: Aktuell verwendete Einstellungen:
Skalierung der Graphiken ... ?
xyx+y,   Skalierungsfaktor:      Skalierung: Modus: x, Faktor: 1
Darstellungszeitraum ... ?
Vom - - bis: - -   Zeitraum: 04.12.2019 - 01.01.2020
Min/Max/Avg-Anzeige ... ?
Zeige MMA aktuell
Zeige MMA Monat
Zeige MMA alles
Zeige --A aktuell
Zeige --A Monat
Zeige --A alles
Keine MMA-Anzeige
MMA:
Average (ber die Originaldaten)
MMA-Basis: 04.12.2019 - 01.01.2020
Quicknavigation für Darstellung... ?
Tage:      1T, 2T, 3T, 5T -1T -2T -3T -5T +1T +2T +3T +5T
Wochen: 1W, 2W, 3W -1W -2W -3W +1W +2W +3W
Monate: 1M, 3M, 6M -1M -3M -6M +1M +3M +6M
Jahre:    1J, 3J, 5J, 10J -1J -3J -5J -10J +1J +3J +5J +10J
Nutze für die Darstellung ... ?
Originaldaten oder ...
Mittelwerte Minima Maxima auf...
Stundenbasis Tagesbasis Wochenbasis
Monatsbasis Jahresbasis      Datenbasis: Mittelwerte auf Stundenbasis
Darstellen als:
Statistik (Auto) Statistik J:M      Darstellung:
Zur Graphik,    zurück zur Übersicht aller Sensoren.
 
Tabellarische Datenbersicht: ?
 
Sensor: Nr:Datum:Temp:Feuchte:
Aussen-T/F 1 04-12-2019 00:00:00 1.2 C 42.1667 %
2 04-12-2019 01:00:00 0.01667 C 44.6667 %
3 04-12-2019 02:00:00 -0.16667 C 45.0000 %
4 04-12-2019 03:00:00 0.9 C 44.5000 %
5 04-12-2019 04:00:00 0.81667 C 45.0000 %
6 04-12-2019 05:00:00 0.9 C 43.6667 %
7 04-12-2019 06:00:00 1.15 C 43.0000 %
8 04-12-2019 07:00:00 1.03333 C 43.1667 %
9 04-12-2019 08:00:00 0.93333 C 43.3333 %
10 04-12-2019 09:00:00 1.2 C 41.5000 %
11 04-12-2019 10:00:00 1.23333 C 38.3333 %
12 04-12-2019 11:00:00 1.06667 C 39.5000 %
13 04-12-2019 12:00:00 1.4 C 41.0000 %
14 04-12-2019 13:00:00 1.85 C 39.5000 %
15 04-12-2019 14:00:00 2.1 C 36.0000 %
16 04-12-2019 15:00:00 1.78333 C 38.8333 %
17 04-12-2019 16:00:00 1.36667 C 36.8333 %
18 04-12-2019 17:00:00 0.86667 C 37.5000 %
19 04-12-2019 18:00:00 0.23333 C 39.6667 %
20 04-12-2019 19:00:00 -0.95 C 43.1667 %
21 04-12-2019 20:00:00 -1.51667 C 44.0000 %
22 04-12-2019 21:00:00 -2.06667 C 43.3333 %
23 04-12-2019 22:00:00 -2.63333 C 43.1667 %
24 04-12-2019 23:00:00 -2.78333 C 41.8333 %
25 05-12-2019 00:00:00 -2.93333 C 41.0000 %
Sensor: Nr:Datum:Temp:Feuchte:
Aussen-T/F 26 05-12-2019 01:00:00 -2.75 C 42.3333 %
27 05-12-2019 02:00:00 -3 C 41.1667 %
28 05-12-2019 03:00:00 -3.33333 C 40.8333 %
29 05-12-2019 04:00:00 -2.86667 C 42.1667 %
30 05-12-2019 05:00:00 -2.66667 C 42.8333 %
31 05-12-2019 06:00:00 -2.83333 C 42.8333 %
32 05-12-2019 07:00:00 -2.98333 C 42.0000 %
33 05-12-2019 08:00:00 -2.91667 C 42.1667 %
34 05-12-2019 09:00:00 -2.56667 C 42.5000 %
35 05-12-2019 10:00:00 -2.03333 C 42.3333 %
36 05-12-2019 11:00:00 -1.18333 C 41.8333 %
37 05-12-2019 12:00:00 -0.78333 C 40.6667 %
38 05-12-2019 13:00:00 -0.33333 C 40.5000 %
39 05-12-2019 14:00:00 0.18333 C 40.1667 %
40 05-12-2019 15:00:00 -0.05 C 42.5000 %
41 05-12-2019 16:00:00 -0.73333 C 44.1667 %
42 05-12-2019 17:00:00 -1.35 C 44.3333 %
43 05-12-2019 18:00:00 -2.08333 C 42.8333 %
44 05-12-2019 19:00:00 -2.36667 C 42.5000 %
45 05-12-2019 20:00:00 -1.76667 C 42.6667 %
46 05-12-2019 21:00:00 -2.16667 C 42.6667 %
47 05-12-2019 22:00:00 -2.31667 C 42.0000 %
48 05-12-2019 23:00:00 -2.93333 C 41.3333 %
49 06-12-2019 00:00:00 -3.23333 C 41.5000 %
50 06-12-2019 01:00:00 -1.91667 C 42.5000 %
Sensor: Nr:Datum:Temp:Feuchte:
Aussen-T/F 51 06-12-2019 02:00:00 -1.53333 C 40.1667 %
52 06-12-2019 03:00:00 -1.11667 C 38.0000 %
53 06-12-2019 04:00:00 -1.13333 C 37.8333 %
54 06-12-2019 05:00:00 -0.85 C 37.0000 %
55 06-12-2019 06:00:00 -0.5 C 35.8333 %
56 06-12-2019 07:00:00 -0.05 C 35.8333 %
57 06-12-2019 08:00:00 0.46667 C 33.5000 %
58 06-12-2019 09:00:00 1.2 C 34.1667 %
59 06-12-2019 10:00:00 2.05 C 35.0000 %
60 06-12-2019 11:00:00 3.28333 C 32.6667 %
61 06-12-2019 12:00:00 3.65 C 36.1667 %
62 06-12-2019 13:00:00 4.03333 C 36.5000 %
63 06-12-2019 14:00:00 4.25 C 38.6667 %
64 06-12-2019 15:00:00 4.5 C 37.1667 %
65 06-12-2019 16:00:00 5.1 C 33.1667 %
66 06-12-2019 17:00:00 5.4 C 30.1667 %
67 06-12-2019 18:00:00 6.03333 C 28.8333 %
68 06-12-2019 19:00:00 6.08333 C 30.0000 %
69 06-12-2019 20:00:00 6.73333 C 28.0000 %
70 06-12-2019 21:00:00 6.63333 C 28.0000 %
71 06-12-2019 22:00:00 6.75 C 28.0000 %
72 06-12-2019 23:00:00 6.86667 C 28.6667 %
73 07-12-2019 00:00:00 7.15 C 28.3333 %
74 07-12-2019 01:00:00 7.61667 C 28.3333 %
75 07-12-2019 02:00:00 7.38333 C 33.3333 %
Sensor: Nr:Datum:Temp:Feuchte:
Aussen-T/F 76 07-12-2019 03:00:00 8.26667 C 30.3333 %
77 07-12-2019 04:00:00 8.13333 C 29.6667 %
78 07-12-2019 05:00:00 7.81667 C 30.3333 %
79 07-12-2019 06:00:00 8.11667 C 26.8333 %
80 07-12-2019 07:00:00 7.01667 C 29.0000 %
81 07-12-2019 08:00:00 8.13333 C 27.5000 %
82 07-12-2019 09:00:00 8.31667 C 27.8333 %
83 07-12-2019 10:00:00 8.96667 C 26.0000 %
84 07-12-2019 11:00:00 8.53333 C 28.8333 %
85 07-12-2019 12:00:00 9.21667 C 25.6667 %
86 07-12-2019 13:00:00 9.85 C 20.5000 %
87 07-12-2019 14:00:00 9.85 C 20.0000 %
88 07-12-2019 15:00:00 9.65 C 21.0000 %
89 07-12-2019 16:00:00 8.66667 C 25.6667 %
90 07-12-2019 17:00:00 8.16667 C 27.8333 %
91 07-12-2019 18:00:00 7.78333 C 28.6667 %
92 07-12-2019 19:00:00 7.58333 C 30.8333 %
93 07-12-2019 20:00:00 7.43333 C 30.3333 %
94 07-12-2019 21:00:00 7.88333 C 28.6667 %
95 07-12-2019 22:00:00 7.81667 C 29.0000 %
96 07-12-2019 23:00:00 7.61667 C 31.0000 %
97 08-12-2019 00:00:00 8.71667 C 23.3333 %
98 08-12-2019 01:00:00 8.68333 C 24.3333 %
99 08-12-2019 02:00:00 9.05 C 20.0000 %
100 08-12-2019 03:00:00 9.2 C 20.0000 %
Sensor: Nr:Datum:Temp:Feuchte:
Aussen-T/F 101 08-12-2019 04:00:00 9.58333 C 20.0000 %
102 08-12-2019 05:00:00 9.45 C 22.1667 %
103 08-12-2019 06:00:00 9.68333 C 23.6667 %
104 08-12-2019 07:00:00 10.01667 C 20.5000 %
105 08-12-2019 08:00:00 10.16667 C 20.5000 %
106 08-12-2019 09:00:00 10.28333 C 21.0000 %
107 08-12-2019 10:00:00 10.36667 C 22.6667 %
108 08-12-2019 11:00:00 10.75 C 23.0000 %
109 08-12-2019 12:00:00 11.31667 C 22.5000 %
110 08-12-2019 13:00:00 11.36667 C 24.3333 %
111 08-12-2019 14:00:00 11.6 C 25.0000 %
112 08-12-2019 15:00:00 11.76667 C 25.0000 %
113 08-12-2019 16:00:00 11.26667 C 26.5000 %
114 08-12-2019 17:00:00 8.76667 C 32.1667 %
115 08-12-2019 18:00:00 8.48333 C 30.3333 %
116 08-12-2019 19:00:00 8.38333 C 29.0000 %
117 08-12-2019 20:00:00 8.2 C 30.3333 %
118 08-12-2019 21:00:00 8.6 C 25.8333 %
119 08-12-2019 22:00:00 8.43333 C 26.0000 %
120 08-12-2019 23:00:00 8.65 C 24.5000 %
121 09-12-2019 00:00:00 8.41667 C 20.5000 %
122 09-12-2019 01:00:00 8.25 C 20.0000 %
123 09-12-2019 02:00:00 7.46667 C 20.8333 %
124 09-12-2019 03:00:00 7.31667 C 20.6667 %
125 09-12-2019 04:00:00 7.51667 C 21.0000 %
Sensor: Nr:Datum:Temp:Feuchte:
Aussen-T/F 126 09-12-2019 05:00:00 7.25 C 20.8333 %
127 09-12-2019 06:00:00 7.55 C 20.0000 %
128 09-12-2019 07:00:00 7.43333 C 20.0000 %
129 09-12-2019 08:00:00 7.9 C 20.0000 %
130 09-12-2019 09:00:00 7.63333 C 20.8333 %
131 09-12-2019 10:00:00 7.93333 C 20.6667 %
132 09-12-2019 11:00:00 8.23333 C 20.0000 %
133 09-12-2019 12:00:00 8.18333 C 20.0000 %
134 09-12-2019 13:00:00 8.36667 C 20.0000 %
135 09-12-2019 14:00:00 8.4 C 20.0000 %
136 09-12-2019 15:00:00 7.3 C 24.3333 %
137 09-12-2019 16:00:00 7.43333 C 20.0000 %
138 09-12-2019 17:00:00 6.5 C 27.8333 %
139 09-12-2019 18:00:00 5.88333 C 34.0000 %
140 09-12-2019 19:00:00 5.58333 C 37.5000 %
141 09-12-2019 20:00:00 5.51667 C 33.8333 %
142 09-12-2019 21:00:00 5.15 C 32.6667 %
143 09-12-2019 22:00:00 4.81667 C 30.5000 %
144 09-12-2019 23:00:00 4.23333 C 29.3333 %
145 10-12-2019 00:00:00 3.48333 C 30.0000 %
146 10-12-2019 01:00:00 2.48333 C 34.3333 %
147 10-12-2019 02:00:00 2.21667 C 34.8333 %
148 10-12-2019 03:00:00 1.7 C 40.6667 %
149 10-12-2019 04:00:00 0.86667 C 43.3333 %
150 10-12-2019 05:00:00 1.81667 C 37.6667 %
Sensor: Nr:Datum:Temp:Feuchte:
Aussen-T/F 151 10-12-2019 06:00:00 1.28333 C 38.5000 %
152 10-12-2019 07:00:00 1.21667 C 39.1667 %
153 10-12-2019 08:00:00 0.55 C 41.8333 %
154 10-12-2019 09:00:00 1.05 C 41.6667 %
155 10-12-2019 10:00:00 2.5 C 34.1667 %
156 10-12-2019 11:00:00 2.63333 C 33.8333 %
157 10-12-2019 12:00:00 4.01667 C 29.0000 %
158 10-12-2019 13:00:00 4.83333 C 26.3333 %
159 10-12-2019 14:00:00 3.96667 C 29.1667 %
160 10-12-2019 15:00:00 3.2 C 30.8333 %
161 10-12-2019 16:00:00 3.16667 C 29.1667 %
162 10-12-2019 17:00:00 2.65 C 27.1667 %
163 10-12-2019 18:00:00 1.83333 C 32.0000 %
164 10-12-2019 19:00:00 1.58333 C 35.8333 %
165 10-12-2019 20:00:00 2.46667 C 30.1667 %
166 10-12-2019 21:00:00 2.08333 C 33.0000 %
167 10-12-2019 22:00:00 2.3 C 33.5000 %
168 10-12-2019 23:00:00 3.06667 C 29.8333 %
169 11-12-2019 00:00:00 3.36667 C 28.3333 %
170 11-12-2019 01:00:00 3.33333 C 28.5000 %
171 11-12-2019 02:00:00 2.91667 C 32.1667 %
172 11-12-2019 03:00:00 2.96667 C 32.1667 %
173 11-12-2019 04:00:00 2.75 C 36.6667 %
174 11-12-2019 05:00:00 2.63333 C 41.1667 %
175 11-12-2019 06:00:00 2.5 C 44.0000 %
Sensor: Nr:Datum:Temp:Feuchte:
Aussen-T/F 176 11-12-2019 07:00:00 2.41667 C 43.6667 %
177 11-12-2019 08:00:00 2.35 C 43.0000 %
178 11-12-2019 09:00:00 2.45 C 43.0000 %
179 11-12-2019 10:00:00 2.76667 C 41.8333 %
180 11-12-2019 11:00:00 3.11667 C 38.6667 %
181 11-12-2019 12:00:00 3.11667 C 39.5000 %
182 11-12-2019 13:00:00 3.2 C 40.0000 %
183 11-12-2019 14:00:00 3.25 C 41.3333 %
184 11-12-2019 15:00:00 3.31667 C 42.0000 %
185 11-12-2019 16:00:00 3.16667 C 42.0000 %
186 11-12-2019 17:00:00 3.11667 C 42.3333 %
187 11-12-2019 18:00:00 3.35 C 43.0000 %
188 11-12-2019 19:00:00 3.53333 C 42.0000 %
189 11-12-2019 20:00:00 3.81667 C 41.8333 %
190 11-12-2019 21:00:00 4.25 C 37.6667 %
191 11-12-2019 22:00:00 3.9 C 37.5000 %
192 11-12-2019 23:00:00 3.43333 C 41.0000 %
193 12-12-2019 00:00:00 2.65 C 42.8333 %
194 12-12-2019 01:00:00 2.48333 C 43.3333 %
195 12-12-2019 02:00:00 1.78333 C 43.6667 %
196 12-12-2019 03:00:00 2.46667 C 43.0000 %
197 12-12-2019 04:00:00 2.7 C 42.8333 %
198 12-12-2019 05:00:00 2.1 C 42.0000 %
199 12-12-2019 06:00:00 2.18333 C 42.3333 %
200 12-12-2019 07:00:00 2.95 C 42.0000 %
Sensor: Nr:Datum:Temp:Feuchte:
Aussen-T/F 201 12-12-2019 08:00:00 3.25 C 42.0000 %
202 12-12-2019 09:00:00 3.68333 C 41.6667 %
203 12-12-2019 10:00:00 4.4 C 36.0000 %
204 12-12-2019 11:00:00 4.61667 C 31.0000 %
205 12-12-2019 12:00:00 4.88333 C 27.3333 %
206 12-12-2019 13:00:00 4.63333 C 26.3333 %
207 12-12-2019 14:00:00 4.48333 C 25.3333 %
208 12-12-2019 15:00:00 3.8 C 27.6667 %
209 12-12-2019 16:00:00 3.43333 C 27.5000 %
210 12-12-2019 17:00:00 1.41667 C 36.6667 %
211 12-12-2019 18:00:00 0.98333 C 40.3333 %
212 12-12-2019 19:00:00 0.65 C 41.5000 %
213 12-12-2019 20:00:00 0.71667 C 41.1667 %
214 12-12-2019 21:00:00 1.25 C 36.1667 %
215 12-12-2019 22:00:00 0.56667 C 38.3333 %
216 12-12-2019 23:00:00 1.5 C 33.0000 %
217 13-12-2019 00:00:00 0.9 C 33.6667 %
218 13-12-2019 01:00:00 1.9 C 28.0000 %
219 13-12-2019 02:00:00 1.98333 C 27.3333 %
220 13-12-2019 03:00:00 1.7 C 30.0000 %
221 13-12-2019 04:00:00 1.51667 C 32.3333 %
222 13-12-2019 05:00:00 1.6 C 33.5000 %
223 13-12-2019 06:00:00 1.9 C 33.0000 %
224 13-12-2019 07:00:00 1.8 C 38.5000 %
225 13-12-2019 08:00:00 1.71667 C 40.0000 %
Sensor: Nr:Datum:Temp:Feuchte:
Aussen-T/F 226 13-12-2019 09:00:00 1.83333 C 41.1667 %
227 13-12-2019 10:00:00 2.08333 C 41.6667 %
228 13-12-2019 11:00:00 2.45 C 40.8333 %
229 13-12-2019 12:00:00 3.31667 C 38.6667 %
230 13-12-2019 13:00:00 4.96667 C 35.8333 %
231 13-12-2019 14:00:00 6.73333 C 28.6667 %
232 13-12-2019 15:00:00 6 C 30.0000 %
233 13-12-2019 16:00:00 5.06667 C 30.3333 %
234 13-12-2019 17:00:00 4.31667 C 32.6667 %
235 13-12-2019 18:00:00 3.8 C 38.3333 %
236 13-12-2019 19:00:00 4.08333 C 34.6667 %
237 13-12-2019 20:00:00 4.66667 C 31.5000 %
238 13-12-2019 21:00:00 4.36667 C 34.1667 %
239 13-12-2019 22:00:00 4.36667 C 31.8333 %
240 13-12-2019 23:00:00 5 C 29.5000 %
241 14-12-2019 00:00:00 4.6 C 30.8333 %
242 14-12-2019 01:00:00 5.25 C 26.0000 %
243 14-12-2019 02:00:00 4.68333 C 28.6667 %
244 14-12-2019 03:00:00 3.96667 C 36.3333 %
245 14-12-2019 04:00:00 3.61667 C 41.5000 %
246 14-12-2019 05:00:00 3.4 C 42.0000 %
247 14-12-2019 06:00:00 4.48333 C 40.3333 %
248 14-12-2019 07:00:00 5.95 C 36.1667 %
249 14-12-2019 08:00:00 6.95 C 27.3333 %
250 14-12-2019 09:00:00 6.66667 C 21.8333 %
Sensor: Nr:Datum:Temp:Feuchte:
Aussen-T/F 251 14-12-2019 10:00:00 6.48333 C 24.8333 %
252 14-12-2019 11:00:00 6.43333 C 25.5000 %
253 14-12-2019 12:00:00 7.31667 C 20.0000 %
254 14-12-2019 13:00:00 8.23333 C 20.0000 %
255 14-12-2019 14:00:00 8.56667 C 20.0000 %
256 14-12-2019 15:00:00 6.88333 C 27.1667 %
257 14-12-2019 16:00:00 7.18333 C 25.6667 %
258 14-12-2019 17:00:00 7.3 C 25.6667 %
259 14-12-2019 18:00:00 7.36667 C 25.5000 %
260 14-12-2019 19:00:00 6.36667 C 26.1667 %
261 14-12-2019 20:00:00 6.48333 C 25.6667 %
262 14-12-2019 21:00:00 6.95 C 25.5000 %
263 14-12-2019 22:00:00 7.06667 C 25.5000 %
264 14-12-2019 23:00:00 7.13333 C 25.3333 %
265 15-12-2019 00:00:00 5.6 C 30.0000 %
266 15-12-2019 01:00:00 5.48333 C 31.8333 %
267 15-12-2019 02:00:00 5.83333 C 34.3333 %
268 15-12-2019 03:00:00 6.08333 C 41.3333 %
269 15-12-2019 04:00:00 7.46667 C 40.6667 %
270 15-12-2019 05:00:00 9 C 34.3333 %
271 15-12-2019 06:00:00 10.45 C 28.1667 %
272 15-12-2019 07:00:00 10.58333 C 27.0000 %
273 15-12-2019 08:00:00 10.48333 C 28.1667 %
274 15-12-2019 09:00:00 8.58333 C 34.5000 %
275 15-12-2019 10:00:00 8.3 C 32.3333 %
Sensor: Nr:Datum:Temp:Feuchte:
Aussen-T/F 276 15-12-2019 11:00:00 8.48333 C 28.5000 %
277 15-12-2019 12:00:00 8.16667 C 27.8333 %
278 15-12-2019 13:00:00 9.11667 C 22.6667 %
279 15-12-2019 14:00:00 9.16667 C 20.0000 %
280 15-12-2019 15:00:00 8.83333 C 20.0000 %
281 15-12-2019 16:00:00 8.08333 C 20.0000 %
282 15-12-2019 17:00:00 7.51667 C 20.1667 %
283 15-12-2019 18:00:00 7.03333 C 23.5000 %
284 15-12-2019 19:00:00 5.21667 C 31.8333 %
285 15-12-2019 20:00:00 4.36667 C 36.6667 %
286 15-12-2019 21:00:00 3.15 C 41.8333 %
287 15-12-2019 22:00:00 3.38333 C 43.1667 %
288 15-12-2019 23:00:00 3.56667 C 42.6667 %
289 16-12-2019 00:00:00 4.41667 C 42.0000 %
290 16-12-2019 01:00:00 5.21667 C 41.5000 %
291 16-12-2019 02:00:00 5.66667 C 41.8333 %
292 16-12-2019 03:00:00 5.88333 C 41.0000 %
293 16-12-2019 04:00:00 6.08333 C 41.0000 %
294 16-12-2019 05:00:00 6.55 C 41.0000 %
295 16-12-2019 06:00:00 6.81667 C 40.3333 %
296 16-12-2019 07:00:00 6.85 C 40.3333 %
297 16-12-2019 08:00:00 7.1 C 40.0000 %
298 16-12-2019 09:00:00 7.46667 C 40.0000 %
299 16-12-2019 10:00:00 7.88333 C 40.0000 %
300 16-12-2019 11:00:00 8.83333 C 39.5000 %
Sensor: Nr:Datum:Temp:Feuchte:
Aussen-T/F 301 16-12-2019 12:00:00 9.41667 C 37.5000 %
302 16-12-2019 13:00:00 10.08333 C 35.0000 %
303 16-12-2019 14:00:00 10.16667 C 33.8333 %
304 16-12-2019 15:00:00 9.45 C 37.0000 %
305 16-12-2019 16:00:00 8.25 C 40.3333 %
306 16-12-2019 17:00:00 7.28333 C 41.0000 %
307 16-12-2019 18:00:00 7.83333 C 39.6667 %
308 16-12-2019 19:00:00 8.08333 C 37.0000 %
309 16-12-2019 20:00:00 7.9 C 36.8333 %
310 16-12-2019 21:00:00 7.15 C 39.1667 %
311 16-12-2019 22:00:00 7.46667 C 38.1667 %
312 16-12-2019 23:00:00 7.51667 C 39.1667 %
313 17-12-2019 00:00:00 7.43333 C 38.5000 %
314 17-12-2019 01:00:00 7.41667 C 38.3333 %
315 17-12-2019 02:00:00 7.41667 C 36.6667 %
316 17-12-2019 03:00:00 8.5 C 33.5000 %
317 17-12-2019 04:00:00 8.35 C 32.1667 %
318 17-12-2019 05:00:00 8.18333 C 34.0000 %
319 17-12-2019 06:00:00 7.51667 C 37.0000 %
320 17-12-2019 07:00:00 7.4 C 36.6667 %
321 17-12-2019 08:00:00 6.96667 C 37.1667 %
322 17-12-2019 09:00:00 6.45 C 39.3333 %
323 17-12-2019 10:00:00 6.86667 C 38.6667 %
324 17-12-2019 11:00:00 8.81667 C 32.3333 %
325 17-12-2019 12:00:00 9.46667 C 32.8333 %
Sensor: Nr:Datum:Temp:Feuchte:
Aussen-T/F 326 17-12-2019 13:00:00 11 C 29.0000 %
327 17-12-2019 14:00:00 11.86667 C 26.6667 %
328 17-12-2019 15:00:00 12.01667 C 26.0000 %
329 17-12-2019 16:00:00 12.31667 C 25.0000 %
330 17-12-2019 17:00:00 12.5 C 22.5000 %
331 17-12-2019 18:00:00 13.28333 C 21.0000 %
332 17-12-2019 19:00:00 12.26667 C 26.6667 %
333 17-12-2019 20:00:00 11.36667 C 32.6667 %
334 17-12-2019 21:00:00 10.81667 C 35.5000 %
335 17-12-2019 22:00:00 13.05 C 25.1667 %
336 17-12-2019 23:00:00 11.41667 C 29.8333 %
337 18-12-2019 00:00:00 10.7 C 32.3333 %
338 18-12-2019 01:00:00 10.83333 C 29.6667 %
339 18-12-2019 02:00:00 11.08333 C 29.8333 %
340 18-12-2019 03:00:00 10.23333 C 36.3333 %
341 18-12-2019 04:00:00 9.68333 C 35.1667 %
342 18-12-2019 05:00:00 8.7 C 35.3333 %
343 18-12-2019 06:00:00 7.81667 C 37.6667 %
344 18-12-2019 07:00:00 7.1 C 40.0000 %
345 18-12-2019 08:00:00 6.5 C 41.3333 %
346 18-12-2019 09:00:00 6.45 C 41.1667 %
347 18-12-2019 10:00:00 7.23333 C 38.0000 %
348 18-12-2019 11:00:00 6.9 C 37.6667 %
349 18-12-2019 12:00:00 8.41667 C 30.6667 %
350 18-12-2019 13:00:00 7.96667 C 31.3333 %
Sensor: Nr:Datum:Temp:Feuchte:
Aussen-T/F 351 18-12-2019 14:00:00 7.45 C 34.1667 %
352 18-12-2019 15:00:00 6.9 C 36.1667 %
353 18-12-2019 16:00:00 6.16667 C 36.6667 %
354 18-12-2019 17:00:00 4.65 C 40.8333 %
355 18-12-2019 18:00:00 4.33333 C 42.8333 %
356 18-12-2019 19:00:00 4.7 C 42.1667 %
357 18-12-2019 20:00:00 4.5 C 41.3333 %
358 18-12-2019 21:00:00 3.6 C 42.8333 %
359 18-12-2019 22:00:00 2.73333 C 43.0000 %
360 18-12-2019 23:00:00 2.16667 C 43.0000 %
361 19-12-2019 00:00:00 2.18333 C 43.3333 %
362 19-12-2019 01:00:00 1.98333 C 43.3333 %
363 19-12-2019 02:00:00 2.01667 C 43.1667 %
364 19-12-2019 03:00:00 1.65 C 44.0000 %
365 19-12-2019 04:00:00 1.51667 C 44.0000 %
366 19-12-2019 05:00:00 1.33333 C 44.0000 %
367 19-12-2019 06:00:00 1.01667 C 44.0000 %
368 19-12-2019 07:00:00 2.23333 C 43.3333 %
369 19-12-2019 08:00:00 4 C 41.5000 %
370 19-12-2019 09:00:00 4.33333 C 41.0000 %
371 19-12-2019 10:00:00 5.95 C 40.5000 %
372 19-12-2019 11:00:00 6.45 C 39.6667 %
373 19-12-2019 12:00:00 6.85 C 39.5000 %
374 19-12-2019 13:00:00 7.23333 C 38.5000 %
375 19-12-2019 14:00:00 7.31667 C 37.5000 %
Sensor: Nr:Datum:Temp:Feuchte:
Aussen-T/F 376 19-12-2019 15:00:00 8.45 C 32.1667 %
377 19-12-2019 16:00:00 8.08333 C 31.1667 %
378 19-12-2019 17:00:00 5.75 C 37.1667 %
379 19-12-2019 18:00:00 5.18333 C 41.6667 %
380 19-12-2019 19:00:00 5 C 41.0000 %
381 19-12-2019 20:00:00 5.31667 C 41.0000 %
382 19-12-2019 21:00:00 5.8 C 39.3333 %
383 19-12-2019 22:00:00 5.6 C 40.1667 %
384 19-12-2019 23:00:00 5.38333 C 42.0000 %
385 20-12-2019 00:00:00 4.01667 C 42.0000 %
386 20-12-2019 01:00:00 3.06667 C 43.1667 %
387 20-12-2019 02:00:00 3.05 C 44.0000 %
388 20-12-2019 03:00:00 4.48333 C 40.8333 %
389 20-12-2019 04:00:00 4.43333 C 40.6667 %
390 20-12-2019 05:00:00 5.23333 C 36.6667 %
391 20-12-2019 06:00:00 5.63333 C 33.3333 %
392 20-12-2019 07:00:00 6.15 C 31.1667 %
393 20-12-2019 08:00:00 6.5 C 31.1667 %
394 20-12-2019 09:00:00 6.51667 C 33.5000 %
395 20-12-2019 10:00:00 5.93333 C 37.1667 %
396 20-12-2019 11:00:00 6.4 C 41.5000 %
397 20-12-2019 12:00:00 7.6 C 38.8333 %
398 20-12-2019 13:00:00 8.35 C 37.3333 %
399 20-12-2019 14:00:00 8.56667 C 35.6667 %
400 20-12-2019 15:00:00 8.25 C 39.1667 %
Sensor: Nr:Datum:Temp:Feuchte:
Aussen-T/F 401 20-12-2019 16:00:00 8.36667 C 40.6667 %
402 20-12-2019 17:00:00 8.88333 C 38.3333 %
403 20-12-2019 18:00:00 9.13333 C 35.1667 %
404 20-12-2019 19:00:00 9.88333 C 28.6667 %
405 20-12-2019 20:00:00 9.25 C 27.6667 %
406 20-12-2019 21:00:00 8.55 C 27.6667 %
407 20-12-2019 22:00:00 8.56667 C 27.1667 %
408 20-12-2019 23:00:00 8.25 C 27.3333 %
409 21-12-2019 00:00:00 7.46667 C 29.3333 %
410 21-12-2019 01:00:00 7.31667 C 31.5000 %
411 21-12-2019 02:00:00 7.91667 C 29.5000 %
412 21-12-2019 03:00:00 7.31667 C 31.0000 %
413 21-12-2019 04:00:00 6.26667 C 37.0000 %
414 21-12-2019 05:00:00 5.46667 C 38.8333 %
415 21-12-2019 06:00:00 4.51667 C 40.8333 %
416 21-12-2019 07:00:00 3.33333 C 42.6667 %
417 21-12-2019 08:00:00 3.96667 C 43.3333 %
418 21-12-2019 09:00:00 4.58333 C 38.6667 %
419 21-12-2019 10:00:00 5.03333 C 37.0000 %
420 21-12-2019 11:00:00 5.58333 C 37.0000 %
421 21-12-2019 12:00:00 6.66667 C 33.6667 %
422 21-12-2019 13:00:00 7.45 C 29.5000 %
423 21-12-2019 14:00:00 8.46667 C 26.6667 %
424 21-12-2019 15:00:00 8.45 C 25.8333 %
425 21-12-2019 16:00:00 7.61667 C 28.5000 %
Sensor: Nr:Datum:Temp:Feuchte:
Aussen-T/F 426 21-12-2019 17:00:00 7.31667 C 29.5000 %
427 21-12-2019 18:00:00 7.65 C 26.1667 %
428 21-12-2019 19:00:00 7 C 28.0000 %
429 21-12-2019 20:00:00 7 C 26.6667 %
430 21-12-2019 21:00:00 5.98333 C 31.0000 %
431 21-12-2019 22:00:00 5.66667 C 30.1667 %
432 21-12-2019 23:00:00 6.23333 C 26.0000 %
433 22-12-2019 00:00:00 6.71667 C 26.8333 %
434 22-12-2019 01:00:00 5.83333 C 36.6667 %
435 22-12-2019 02:00:00 5.83333 C 37.0000 %
436 22-12-2019 03:00:00 6.16667 C 34.6667 %
437 22-12-2019 04:00:00 6.2 C 34.0000 %
438 22-12-2019 05:00:00 5.78333 C 36.1667 %
439 22-12-2019 06:00:00 5.46667 C 40.5000 %
440 22-12-2019 07:00:00 5.9 C 39.3333 %
441 22-12-2019 08:00:00 6.11667 C 40.3333 %
442 22-12-2019 09:00:00 6.45 C 38.8333 %
443 22-12-2019 10:00:00 8.36667 C 31.6667 %
444 22-12-2019 11:00:00 10.08333 C 26.3333 %
445 22-12-2019 12:00:00 10.7 C 25.5000 %
446 22-12-2019 13:00:00 10.8 C 25.0000 %
447 22-12-2019 14:00:00 10.88333 C 23.3333 %
448 22-12-2019 15:00:00 10.03333 C 25.3333 %
449 22-12-2019 16:00:00 8.73333 C 26.1667 %
450 22-12-2019 17:00:00 7.43333 C 29.1667 %
Sensor: Nr:Datum:Temp:Feuchte:
Aussen-T/F 451 22-12-2019 18:00:00 7.28333 C 29.5000 %
452 22-12-2019 19:00:00 7.28333 C 30.1667 %
453 22-12-2019 20:00:00 8.08333 C 25.5000 %
454 22-12-2019 21:00:00 7.93333 C 25.3333 %
455 22-12-2019 22:00:00 7.28333 C 27.0000 %
456 22-12-2019 23:00:00 6.53333 C 31.0000 %
457 23-12-2019 00:00:00 6.66667 C 31.0000 %
458 23-12-2019 01:00:00 7.13333 C 28.0000 %
459 23-12-2019 02:00:00 6.86667 C 29.1667 %
460 23-12-2019 03:00:00 6.71667 C 29.5000 %
461 23-12-2019 04:00:00 6.71667 C 30.1667 %
462 23-12-2019 05:00:00 6.76667 C 30.8333 %
463 23-12-2019 06:00:00 6.78333 C 31.6667 %
464 23-12-2019 07:00:00 7 C 31.1667 %
465 23-12-2019 08:00:00 7.48333 C 28.1667 %
466 23-12-2019 09:00:00 7.76667 C 26.8333 %
467 23-12-2019 10:00:00 7.06667 C 32.8333 %
468 23-12-2019 11:00:00 8.35 C 26.5000 %
469 23-12-2019 12:00:00 8.96667 C 25.1667 %
470 23-12-2019 13:00:00 8.28333 C 27.5000 %
471 23-12-2019 14:00:00 8.98333 C 25.5000 %
472 23-12-2019 15:00:00 8.95 C 25.1667 %
473 23-12-2019 16:00:00 8.55 C 25.1667 %
474 23-12-2019 17:00:00 8.01667 C 25.0000 %
475 23-12-2019 18:00:00 7.8 C 24.5000 %
Sensor: Nr:Datum:Temp:Feuchte:
Aussen-T/F 476 23-12-2019 19:00:00 6.96667 C 27.3333 %
477 23-12-2019 20:00:00 6.81667 C 29.6667 %
478 23-12-2019 21:00:00 6.75 C 30.0000 %
479 23-12-2019 22:00:00 5.68333 C 33.5000 %
480 23-12-2019 23:00:00 5.28333 C 32.3333 %
481 24-12-2019 00:00:00 5.91667 C 32.1667 %
482 24-12-2019 01:00:00 5.91667 C 31.3333 %
483 24-12-2019 02:00:00 5.78333 C 34.5000 %
484 24-12-2019 03:00:00 5.81667 C 30.6667 %
485 24-12-2019 04:00:00 5.05 C 37.5000 %
486 24-12-2019 05:00:00 4.96667 C 36.1667 %
487 24-12-2019 06:00:00 4.51667 C 38.1667 %
488 24-12-2019 07:00:00 5.36667 C 34.0000 %
489 24-12-2019 08:00:00 6.15 C 30.0000 %
490 24-12-2019 09:00:00 6.7 C 28.8333 %
491 24-12-2019 10:00:00 6.43333 C 33.5000 %
492 24-12-2019 11:00:00 7.56667 C 31.5000 %
493 24-12-2019 12:00:00 8.15 C 28.1667 %
494 24-12-2019 13:00:00 9.26667 C 25.5000 %
495 24-12-2019 14:00:00 9.45 C 25.5000 %
496 24-12-2019 15:00:00 9.83333 C 23.3333 %
497 24-12-2019 16:00:00 9.98333 C 20.1667 %
498 24-12-2019 17:00:00 9.33333 C 20.0000 %
499 24-12-2019 18:00:00 8.31667 C 27.5000 %
500 24-12-2019 19:00:00 6.8 C 34.8333 %
Sensor: Nr:Datum:Temp:Feuchte:
Aussen-T/F 501 24-12-2019 20:00:00 7.15 C 31.3333 %
502 24-12-2019 21:00:00 7.63333 C 29.6667 %
503 24-12-2019 22:00:00 8.33333 C 26.5000 %
504 24-12-2019 23:00:00 8.43333 C 27.0000 %
505 25-12-2019 00:00:00 8.31667 C 28.0000 %
506 25-12-2019 01:00:00 7.56667 C 33.8333 %
507 25-12-2019 02:00:00 7.88333 C 31.1667 %
508 25-12-2019 03:00:00 8.08333 C 30.6667 %
509 25-12-2019 04:00:00 7.91667 C 35.5000 %
510 25-12-2019 05:00:00 7.78333 C 36.3333 %
511 25-12-2019 06:00:00 7.26667 C 36.6667 %
512 25-12-2019 07:00:00 7 C 35.1667 %
513 25-12-2019 08:00:00 6.46667 C 32.0000 %
514 25-12-2019 09:00:00 7.08333 C 28.6667 %
515 25-12-2019 10:00:00 7.5 C 26.5000 %
516 25-12-2019 11:00:00 7.43333 C 26.5000 %
517 25-12-2019 12:00:00 7.56667 C 27.3333 %
518 25-12-2019 13:00:00 7 C 30.1667 %
519 25-12-2019 14:00:00 7.41667 C 29.3333 %
520 25-12-2019 15:00:00 7.2 C 30.6667 %
521 25-12-2019 16:00:00 6.9 C 31.8333 %
522 25-12-2019 17:00:00 6.31667 C 32.0000 %
523 25-12-2019 18:00:00 6.15 C 32.5000 %
524 25-12-2019 19:00:00 6 C 32.6667 %
525 25-12-2019 20:00:00 5.75 C 35.5000 %
Sensor: Nr:Datum:Temp:Feuchte:
Aussen-T/F 526 25-12-2019 21:00:00 5.33333 C 41.0000 %
527 25-12-2019 22:00:00 5.15 C 42.0000 %
528 25-12-2019 23:00:00 4.98333 C 42.0000 %
529 26-12-2019 00:00:00 4.01667 C 43.0000 %
530 26-12-2019 01:00:00 4.35 C 42.8333 %
531 26-12-2019 02:00:00 4.18333 C 42.0000 %
532 26-12-2019 03:00:00 4.08333 C 42.1667 %
533 26-12-2019 04:00:00 3.3 C 42.1667 %
534 26-12-2019 05:00:00 3.43333 C 43.0000 %
535 26-12-2019 06:00:00 3.55 C 43.0000 %
536 26-12-2019 07:00:00 3.43333 C 43.0000 %
537 26-12-2019 08:00:00 3.43333 C 43.0000 %
538 26-12-2019 09:00:00 3.51667 C 42.5000 %
539 26-12-2019 10:00:00 3.96667 C 41.5000 %
540 26-12-2019 11:00:00 5.16667 C 39.6667 %
541 26-12-2019 12:00:00 5.83333 C 35.5000 %
542 26-12-2019 13:00:00 5.8 C 36.1667 %
543 26-12-2019 14:00:00 5.8 C 35.3333 %
544 26-12-2019 15:00:00 5.1 C 37.5000 %
545 26-12-2019 16:00:00 4.48333 C 39.8333 %
546 26-12-2019 17:00:00 4.26667 C 40.0000 %
547 26-12-2019 18:00:00 4.06667 C 40.5000 %
548 26-12-2019 19:00:00 3.93333 C 40.8333 %
549 26-12-2019 20:00:00 4.01667 C 40.3333 %
550 26-12-2019 21:00:00 4.2 C 37.5000 %
Sensor: Nr:Datum:Temp:Feuchte:
Aussen-T/F 551 26-12-2019 22:00:00 4.1 C 41.0000 %
552 26-12-2019 23:00:00 4.03333 C 42.6667 %
553 27-12-2019 00:00:00 4.03333 C 42.0000 %
554 27-12-2019 01:00:00 4.1 C 42.0000 %
555 27-12-2019 02:00:00 4.11667 C 42.0000 %
556 27-12-2019 03:00:00 4.28333 C 42.0000 %
557 27-12-2019 04:00:00 4.31667 C 42.0000 %
558 27-12-2019 05:00:00 4.38333 C 42.0000 %
559 27-12-2019 06:00:00 4.4 C 42.0000 %
560 27-12-2019 07:00:00 4.4 C 42.0000 %
561 27-12-2019 08:00:00 4.3 C 42.0000 %
562 27-12-2019 09:00:00 4.5 C 41.8333 %
563 27-12-2019 10:00:00 4.88333 C 39.8333 %
564 27-12-2019 11:00:00 5.35 C 35.3333 %
565 27-12-2019 12:00:00 5.96667 C 31.0000 %
566 27-12-2019 13:00:00 5.7 C 30.6667 %
567 27-12-2019 14:00:00 5.93333 C 28.6667 %
568 27-12-2019 15:00:00 5.55 C 29.0000 %
569 27-12-2019 16:00:00 4.83333 C 33.3333 %
570 27-12-2019 17:00:00 4.48333 C 34.0000 %
571 27-12-2019 18:00:00 4.35 C 33.1667 %
572 27-12-2019 19:00:00 4.15 C 33.3333 %
573 27-12-2019 20:00:00 3.98333 C 32.0000 %
574 27-12-2019 21:00:00 3.93333 C 31.6667 %
575 27-12-2019 22:00:00 2.83333 C 33.0000 %
Sensor: Nr:Datum:Temp:Feuchte:
Aussen-T/F 576 27-12-2019 23:00:00 1.1 C 40.3333 %
577 28-12-2019 00:00:00 0.35 C 40.6667 %
578 28-12-2019 01:00:00 -0.45 C 42.5000 %
579 28-12-2019 02:00:00 -1.51667 C 44.6667 %
580 28-12-2019 03:00:00 -2.05 C 45.0000 %
581 28-12-2019 04:00:00 -2.36667 C 45.0000 %
582 28-12-2019 05:00:00 -2.45 C 44.6667 %
583 28-12-2019 06:00:00 -2.01667 C 43.8333 %
584 28-12-2019 07:00:00 -2.33333 C 43.0000 %
585 28-12-2019 08:00:00 -3 C 42.3333 %
586 28-12-2019 09:00:00 -2.41667 C 43.6667 %
587 28-12-2019 10:00:00 -1.36667 C 45.0000 %
588 28-12-2019 11:00:00 -0.58333 C 43.1667 %
589 28-12-2019 12:00:00 0.2 C 40.6667 %
590 28-12-2019 13:00:00 0.76667 C 40.0000 %
591 28-12-2019 14:00:00 0.65 C 40.3333 %
592 28-12-2019 15:00:00 0.38333 C 39.6667 %
593 28-12-2019 16:00:00 0.01667 C 38.5000 %
594 28-12-2019 17:00:00 -0.65 C 40.1667 %
595 28-12-2019 18:00:00 -1.06667 C 43.1667 %
596 28-12-2019 19:00:00 -1.73333 C 43.1667 %
597 28-12-2019 20:00:00 -1.43333 C 44.0000 %
598 28-12-2019 21:00:00 -1.56667 C 42.3333 %
599 28-12-2019 22:00:00 -2.2 C 42.0000 %
600 28-12-2019 23:00:00 -2.55 C 42.5000 %
Sensor: Nr:Datum:Temp:Feuchte:
Aussen-T/F 601 29-12-2019 00:00:00 -3 C 42.8333 %
602 29-12-2019 01:00:00 -3.38333 C 42.5000 %
603 29-12-2019 02:00:00 -3.66667 C 41.6667 %
604 29-12-2019 03:00:00 -4.03333 C 41.3333 %
605 29-12-2019 04:00:00 -4.15 C 41.1667 %
606 29-12-2019 05:00:00 -4.48333 C 41.0000 %
607 29-12-2019 06:00:00 -4.75 C 41.0000 %
608 29-12-2019 07:00:00 -4.78333 C 41.1667 %
609 29-12-2019 08:00:00 -4.25 C 41.5000 %
610 29-12-2019 09:00:00 -4.01667 C 41.3333 %
611 29-12-2019 10:00:00 -3.4 C 41.6667 %
612 29-12-2019 11:00:00 -1.3 C 42.5000 %
613 29-12-2019 12:00:00 0.08333 C 40.3333 %
614 29-12-2019 13:00:00 1.16667 C 37.1667 %
615 29-12-2019 14:00:00 1.8 C 35.3333 %
616 29-12-2019 15:00:00 1.73333 C 31.0000 %
617 29-12-2019 16:00:00 0.05 C 38.5000 %
618 29-12-2019 17:00:00 -0.23333 C 37.8333 %
619 29-12-2019 18:00:00 -0.21667 C 38.0000 %
620 29-12-2019 19:00:00 -0.75 C 37.0000 %
621 29-12-2019 20:00:00 -1.08333 C 36.6667 %
622 29-12-2019 21:00:00 -1.83333 C 40.0000 %
623 29-12-2019 22:00:00 -2.46667 C 42.6667 %
624 29-12-2019 23:00:00 -2.88333 C 43.0000 %
625 30-12-2019 00:00:00 -3.1 C 41.6667 %
Sensor: Nr:Datum:Temp:Feuchte:
Aussen-T/F 626 30-12-2019 01:00:00 -3.25 C 42.5000 %
627 30-12-2019 02:00:00 -3.36667 C 43.0000 %
628 30-12-2019 03:00:00 -3.3 C 43.0000 %
629 30-12-2019 04:00:00 -3.85 C 42.0000 %
630 30-12-2019 05:00:00 -3.85 C 42.3333 %
631 30-12-2019 06:00:00 -3.91667 C 42.1667 %
632 30-12-2019 07:00:00 -4.26667 C 41.6667 %
633 30-12-2019 08:00:00 -4.3 C 41.6667 %
634 30-12-2019 09:00:00 -3.8 C 42.1667 %
635 30-12-2019 10:00:00 -3.21667 C 42.3333 %
636 30-12-2019 11:00:00 -2.38333 C 41.6667 %
637 30-12-2019 12:00:00 -1.28333 C 40.0000 %
638 30-12-2019 13:00:00 -0.76667 C 40.6667 %
639 30-12-2019 14:00:00 0.51667 C 34.8333 %
640 30-12-2019 15:00:00 0.91667 C 34.5000 %
641 30-12-2019 16:00:00 1.28333 C 34.6667 %
642 30-12-2019 17:00:00 0.58333 C 39.5000 %
643 30-12-2019 18:00:00 -0.31667 C 35.8333 %
644 30-12-2019 19:00:00 -0.91667 C 35.3333 %
645 30-12-2019 20:00:00 -1.31667 C 34.5000 %
646 30-12-2019 21:00:00 -1.1 C 35.1667 %
647 30-12-2019 22:00:00 -1.83333 C 35.1667 %
648 30-12-2019 23:00:00 -1.15 C 32.8333 %
649 31-12-2019 00:00:00 -1.4 C 34.6667 %
650 31-12-2019 01:00:00 -1.58333 C 36.0000 %
Sensor: Nr:Datum:Temp:Feuchte:
Aussen-T/F 651 31-12-2019 02:00:00 -2.65 C 41.6667 %
652 31-12-2019 03:00:00 -2.38333 C 41.0000 %
653 31-12-2019 04:00:00 -3.11667 C 42.3333 %
654 31-12-2019 05:00:00 -3.21667 C 43.1667 %
655 31-12-2019 06:00:00 -3.25 C 43.1667 %
656 31-12-2019 07:00:00 -2.83333 C 44.3333 %
657 31-12-2019 08:00:00 -1.4 C 44.0000 %
658 31-12-2019 09:00:00 -1.01667 C 42.6667 %
659 31-12-2019 10:00:00 0.06667 C 41.0000 %
660 31-12-2019 11:00:00 1.13333 C 40.0000 %
661 31-12-2019 12:00:00 2.38333 C 31.6667 %
662 31-12-2019 13:00:00 2.76667 C 26.6667 %
663 31-12-2019 14:00:00 3.05 C 26.3333 %
664 31-12-2019 15:00:00 2.88333 C 27.5000 %
665 31-12-2019 16:00:00 0.71667 C 37.0000 %
666 31-12-2019 17:00:00 -0.4 C 41.5000 %
667 31-12-2019 18:00:00 -0.8 C 45.0000 %
668 31-12-2019 19:00:00 0.05 C 45.1667 %
669 31-12-2019 20:00:00 0.38333 C 44.3333 %
670 31-12-2019 21:00:00 0.43333 C 43.5000 %
671 31-12-2019 22:00:00 0.11667 C 41.8333 %
672 31-12-2019 23:00:00 0.05 C 44.8333 %
673 01-01-2020 00:00:00 -0.1 C 44.1667 %
674 01-01-2020 01:00:00 -0.73333 C 44.5000 %
675 01-01-2020 02:00:00 -0.26667 C 45.1667 %
Sensor: Nr:Datum:Temp:Feuchte:
Aussen-T/F 676 01-01-2020 03:00:00 0.11667 C 45.0000 %
677 01-01-2020 04:00:00 0.26667 C 44.6667 %
678 01-01-2020 05:00:00 0.41667 C 43.8333 %
679 01-01-2020 06:00:00 0.51667 C 42.3333 %
680 01-01-2020 07:00:00 0.6 C 41.0000 %
681 01-01-2020 08:00:00 0.68333 C 40.3333 %
682 01-01-2020 09:00:00 1.3 C 37.6667 %
683 01-01-2020 10:00:00 2.15 C 33.1667 %
684 01-01-2020 11:00:00 2.7 C 30.3333 %
685 01-01-2020 12:00:00 2.7 C 29.8333 %
686 01-01-2020 13:00:00 1.53333 C 37.5000 %
687 01-01-2020 14:00:00 1.45 C 40.0000 %
688 01-01-2020 15:00:00 1.26667 C 39.8333 %
689 01-01-2020 16:00:00 -0.35 C 44.0000 %
690 01-01-2020 17:00:00 -1.55 C 45.0000 %
691 01-01-2020 18:00:00 -2.05 C 45.0000 %
692 01-01-2020 19:00:00 -2.36667 C 45.0000 %
693 01-01-2020 20:00:00 -2.35 C 44.3333 %
694 01-01-2020 21:00:00 -3 C 42.8333 %
695 01-01-2020 22:00:00 -3.01667 C 42.5000 %
696 01-01-2020 23:00:00 -2.5 C 44.1667 %
Sensor: Nr:Datum:Temp:Feuchte:
G-T/H 1 04-12-2019 00:00:00 9.1 C 73.0000 %
2 04-12-2019 01:00:00 9.08333 C 73.0000 %
3 04-12-2019 02:00:00 9 C 72.1667 %
4 04-12-2019 03:00:00 9 C 72.0000 %
5 04-12-2019 04:00:00 8.93333 C 72.6667 %
6 04-12-2019 05:00:00 8.9 C 73.0000 %
7 04-12-2019 06:00:00 8.86667 C 73.0000 %
8 04-12-2019 07:00:00 8.83333 C 73.0000 %
9 04-12-2019 08:00:00 8.8 C 73.0000 %
10 04-12-2019 09:00:00 8.71667 C 73.0000 %
11 04-12-2019 10:00:00 8.7 C 72.5000 %
12 04-12-2019 11:00:00 8.7 C 72.0000 %
13 04-12-2019 12:00:00 8.7 C 72.0000 %
14 04-12-2019 13:00:00 8.7 C 72.0000 %
15 04-12-2019 14:00:00 8.65 C 72.0000 %
16 04-12-2019 15:00:00 8.61667 C 72.0000 %
17 04-12-2019 16:00:00 8.6 C 72.0000 %
18 04-12-2019 17:00:00 8.56667 C 72.0000 %
19 04-12-2019 18:00:00 8.5 C 72.0000 %
20 04-12-2019 19:00:00 8.41667 C 70.6667 %
21 04-12-2019 20:00:00 8.86667 C 70.3333 %
22 04-12-2019 21:00:00 9.01667 C 69.3333 %
23 04-12-2019 22:00:00 9 C 68.5000 %
24 04-12-2019 23:00:00 8.78333 C 69.0000 %
25 05-12-2019 00:00:00 8.61667 C 69.0000 %
Sensor: Nr:Datum:Temp:Feuchte:
G-T/H 26 05-12-2019 01:00:00 8.56667 C 69.0000 %
27 05-12-2019 02:00:00 8.46667 C 69.0000 %
28 05-12-2019 03:00:00 8.35 C 69.0000 %
29 05-12-2019 04:00:00 8.18333 C 69.0000 %
30 05-12-2019 05:00:00 8.06667 C 69.0000 %
31 05-12-2019 06:00:00 7.98333 C 69.1667 %
32 05-12-2019 07:00:00 7.76667 C 68.3333 %
33 05-12-2019 08:00:00 7.8 C 68.6667 %
34 05-12-2019 09:00:00 7.75 C 69.0000 %
35 05-12-2019 10:00:00 7.73333 C 69.0000 %
36 05-12-2019 11:00:00 7.7 C 69.0000 %
37 05-12-2019 12:00:00 7.68333 C 69.1667 %
38 05-12-2019 13:00:00 7.61667 C 70.0000 %
39 05-12-2019 14:00:00 7.6 C 70.0000 %
40 05-12-2019 15:00:00 7.61667 C 70.0000 %
41 05-12-2019 16:00:00 7.6 C 70.0000 %
42 05-12-2019 17:00:00 7.6 C 70.0000 %
43 05-12-2019 18:00:00 7.51667 C 69.3333 %
44 05-12-2019 19:00:00 7.95 C 69.1667 %
45 05-12-2019 20:00:00 8.1 C 68.8333 %
46 05-12-2019 21:00:00 8.03333 C 68.0000 %
47 05-12-2019 22:00:00 7.91667 C 68.8333 %
48 05-12-2019 23:00:00 7.86667 C 69.0000 %
49 06-12-2019 00:00:00 7.78333 C 68.8333 %
50 06-12-2019 01:00:00 7.71667 C 68.6667 %
Sensor: Nr:Datum:Temp:Feuchte:
G-T/H 51 06-12-2019 02:00:00 7.6 C 69.0000 %
52 06-12-2019 03:00:00 7.58333 C 69.0000 %
53 06-12-2019 04:00:00 7.5 C 69.0000 %
54 06-12-2019 05:00:00 7.4 C 69.0000 %
55 06-12-2019 06:00:00 7.4 C 69.0000 %
56 06-12-2019 07:00:00 7.31667 C 68.6667 %
57 06-12-2019 08:00:00 7.3 C 68.8333 %
58 06-12-2019 09:00:00 7.3 C 69.1667 %
59 06-12-2019 10:00:00 7.3 C 70.0000 %
60 06-12-2019 11:00:00 7.33333 C 70.0000 %
61 06-12-2019 12:00:00 7.38333 C 71.0000 %
62 06-12-2019 13:00:00 7.4 C 71.0000 %
63 06-12-2019 14:00:00 7.48333 C 71.3333 %
64 06-12-2019 15:00:00 7.5 C 72.0000 %
65 06-12-2019 16:00:00 7.56667 C 72.0000 %
66 06-12-2019 17:00:00 7.63333 C 72.0000 %
67 06-12-2019 18:00:00 7.73333 C 73.0000 %
68 06-12-2019 19:00:00 7.8 C 73.0000 %
69 06-12-2019 20:00:00 7.85 C 73.0000 %
70 06-12-2019 21:00:00 7.9 C 73.0000 %
71 06-12-2019 22:00:00 7.96667 C 73.1667 %
72 06-12-2019 23:00:00 8 C 73.1667 %
73 07-12-2019 00:00:00 8.13333 C 73.0000 %
74 07-12-2019 01:00:00 8.2 C 73.0000 %
75 07-12-2019 02:00:00 8.3 C 73.6667 %
Sensor: Nr:Datum:Temp:Feuchte:
G-T/H 76 07-12-2019 03:00:00 8.36667 C 74.0000 %
77 07-12-2019 04:00:00 8.41667 C 74.0000 %
78 07-12-2019 05:00:00 8.48333 C 74.0000 %
79 07-12-2019 06:00:00 8.56667 C 74.0000 %
80 07-12-2019 07:00:00 8.6 C 74.8333 %
81 07-12-2019 08:00:00 8.68333 C 75.0000 %
82 07-12-2019 09:00:00 8.75 C 75.0000 %
83 07-12-2019 10:00:00 8.81667 C 75.0000 %
84 07-12-2019 11:00:00 8.91667 C 74.8333 %
85 07-12-2019 12:00:00 9.18333 C 74.0000 %
86 07-12-2019 13:00:00 9.2 C 74.0000 %
87 07-12-2019 14:00:00 9.2 C 74.0000 %
88 07-12-2019 15:00:00 9.28333 C 74.5000 %
89 07-12-2019 16:00:00 9.3 C 75.0000 %
90 07-12-2019 17:00:00 9.38333 C 75.0000 %
91 07-12-2019 18:00:00 9.46667 C 75.0000 %
92 07-12-2019 19:00:00 9.51667 C 75.0000 %
93 07-12-2019 20:00:00 9.56667 C 75.0000 %
94 07-12-2019 21:00:00 9.6 C 75.0000 %
95 07-12-2019 22:00:00 9.65 C 75.0000 %
96 07-12-2019 23:00:00 9.7 C 75.0000 %
97 08-12-2019 00:00:00 9.7 C 75.0000 %
98 08-12-2019 01:00:00 9.78333 C 75.6667 %
99 08-12-2019 02:00:00 9.8 C 75.1667 %
100 08-12-2019 03:00:00 9.81667 C 75.3333 %
Sensor: Nr:Datum:Temp:Feuchte:
G-T/H 101 08-12-2019 04:00:00 9.88333 C 75.5000 %
102 08-12-2019 05:00:00 9.9 C 75.8333 %
103 08-12-2019 06:00:00 10 C 74.0000 %
104 08-12-2019 07:00:00 10 C 74.0000 %
105 08-12-2019 08:00:00 10.03333 C 74.0000 %
106 08-12-2019 09:00:00 10.1 C 74.0000 %
107 08-12-2019 10:00:00 10.11667 C 74.8333 %
108 08-12-2019 11:00:00 10.2 C 75.0000 %
109 08-12-2019 12:00:00 10.26667 C 75.0000 %
110 08-12-2019 13:00:00 10.33333 C 75.0000 %
111 08-12-2019 14:00:00 10.4 C 75.0000 %
112 08-12-2019 15:00:00 10.5 C 75.0000 %
113 08-12-2019 16:00:00 10.6 C 75.5000 %
114 08-12-2019 17:00:00 10.6 C 76.0000 %
115 08-12-2019 18:00:00 10.63333 C 76.0000 %
116 08-12-2019 19:00:00 10.7 C 76.0000 %
117 08-12-2019 20:00:00 10.7 C 76.0000 %
118 08-12-2019 21:00:00 10.7 C 76.0000 %
119 08-12-2019 22:00:00 10.7 C 75.1667 %
120 08-12-2019 23:00:00 10.7 C 75.0000 %
121 09-12-2019 00:00:00 10.7 C 75.0000 %
122 09-12-2019 01:00:00 10.7 C 75.0000 %
123 09-12-2019 02:00:00 10.7 C 75.0000 %
124 09-12-2019 03:00:00 10.61667 C 74.1667 %
125 09-12-2019 04:00:00 10.6 C 74.0000 %
Sensor: Nr:Datum:Temp:Feuchte:
G-T/H 126 09-12-2019 05:00:00 10.56667 C 74.0000 %
127 09-12-2019 06:00:00 10.5 C 74.0000 %
128 09-12-2019 07:00:00 10.48333 C 74.0000 %
129 09-12-2019 08:00:00 10.45 C 74.0000 %
130 09-12-2019 09:00:00 10.4 C 74.0000 %
131 09-12-2019 10:00:00 10.4 C 74.0000 %
132 09-12-2019 11:00:00 10.4 C 74.0000 %
133 09-12-2019 12:00:00 10.4 C 74.0000 %
134 09-12-2019 13:00:00 10.4 C 74.0000 %
135 09-12-2019 14:00:00 10.41667 C 74.0000 %
136 09-12-2019 15:00:00 10.48333 C 74.0000 %
137 09-12-2019 16:00:00 10.48333 C 74.0000 %
138 09-12-2019 17:00:00 10.48333 C 74.0000 %
139 09-12-2019 18:00:00 10.5 C 74.0000 %
140 09-12-2019 19:00:00 10.48333 C 74.0000 %
141 09-12-2019 20:00:00 10.41667 C 74.0000 %
142 09-12-2019 21:00:00 10.4 C 74.0000 %
143 09-12-2019 22:00:00 10.38333 C 74.0000 %
144 09-12-2019 23:00:00 10.25 C 73.5000 %
145 10-12-2019 00:00:00 10.15 C 72.1667 %
146 10-12-2019 01:00:00 10.05 C 71.1667 %
147 10-12-2019 02:00:00 9.91667 C 71.3333 %
148 10-12-2019 03:00:00 9.78333 C 71.0000 %
149 10-12-2019 04:00:00 9.7 C 71.0000 %
150 10-12-2019 05:00:00 9.7 C 71.0000 %
Sensor: Nr:Datum:Temp:Feuchte:
G-T/H 151 10-12-2019 06:00:00 9.63333 C 71.0000 %
152 10-12-2019 07:00:00 9.6 C 72.0000 %
153 10-12-2019 08:00:00 9.46667 C 71.0000 %
154 10-12-2019 09:00:00 9.4 C 71.0000 %
155 10-12-2019 10:00:00 9.33333 C 71.0000 %
156 10-12-2019 11:00:00 9.28333 C 71.0000 %
157 10-12-2019 12:00:00 9.23333 C 72.0000 %
158 10-12-2019 13:00:00 9.2 C 72.0000 %
159 10-12-2019 14:00:00 9.16667 C 72.0000 %
160 10-12-2019 15:00:00 9.1 C 72.0000 %
161 10-12-2019 16:00:00 9.1 C 72.0000 %
162 10-12-2019 17:00:00 9.05 C 71.6667 %
163 10-12-2019 18:00:00 8.96667 C 71.3333 %
164 10-12-2019 19:00:00 8.91667 C 71.8333 %
165 10-12-2019 20:00:00 8.9 C 72.0000 %
166 10-12-2019 21:00:00 8.9 C 72.0000 %
167 10-12-2019 22:00:00 8.81667 C 72.0000 %
168 10-12-2019 23:00:00 8.8 C 72.6667 %
169 11-12-2019 00:00:00 8.8 C 73.0000 %
170 11-12-2019 01:00:00 8.8 C 73.0000 %
171 11-12-2019 02:00:00 8.8 C 73.0000 %
172 11-12-2019 03:00:00 8.78333 C 73.0000 %
173 11-12-2019 04:00:00 8.75 C 73.0000 %
174 11-12-2019 05:00:00 8.75 C 73.0000 %
175 11-12-2019 06:00:00 8.71667 C 73.0000 %
Sensor: Nr:Datum:Temp:Feuchte:
G-T/H 176 11-12-2019 07:00:00 8.7 C 73.0000 %
177 11-12-2019 08:00:00 8.7 C 73.0000 %
178 11-12-2019 09:00:00 8.73333 C 73.0000 %
179 11-12-2019 10:00:00 8.73333 C 73.0000 %
180 11-12-2019 11:00:00 8.71667 C 73.0000 %
181 11-12-2019 12:00:00 8.7 C 73.0000 %
182 11-12-2019 13:00:00 8.7 C 73.0000 %
183 11-12-2019 14:00:00 8.7 C 73.0000 %
184 11-12-2019 15:00:00 8.7 C 73.0000 %
185 11-12-2019 16:00:00 8.7 C 73.0000 %
186 11-12-2019 17:00:00 8.71667 C 73.0000 %
187 11-12-2019 18:00:00 8.73333 C 73.0000 %
188 11-12-2019 19:00:00 8.8 C 73.0000 %
189 11-12-2019 20:00:00 8.81667 C 73.0000 %
190 11-12-2019 21:00:00 8.86667 C 74.0000 %
191 11-12-2019 22:00:00 8.86667 C 74.0000 %
192 11-12-2019 23:00:00 8.88333 C 74.0000 %
193 12-12-2019 00:00:00 8.85 C 74.0000 %
194 12-12-2019 01:00:00 8.8 C 74.0000 %
195 12-12-2019 02:00:00 8.8 C 73.5000 %
196 12-12-2019 03:00:00 8.8 C 73.0000 %
197 12-12-2019 04:00:00 8.8 C 73.0000 %
198 12-12-2019 05:00:00 8.78333 C 73.0000 %
199 12-12-2019 06:00:00 8.7 C 73.0000 %
200 12-12-2019 07:00:00 8.7 C 73.0000 %
Sensor: Nr:Datum:Temp:Feuchte:
G-T/H 201 12-12-2019 08:00:00 8.7 C 73.6667 %
202 12-12-2019 09:00:00 8.7 C 74.0000 %
203 12-12-2019 10:00:00 8.7 C 74.0000 %
204 12-12-2019 11:00:00 8.71667 C 74.0000 %
205 12-12-2019 12:00:00 8.75 C 74.0000 %
206 12-12-2019 13:00:00 8.8 C 74.0000 %
207 12-12-2019 14:00:00 8.8 C 74.0000 %
208 12-12-2019 15:00:00 8.8 C 74.0000 %
209 12-12-2019 16:00:00 8.8 C 74.0000 %
210 12-12-2019 17:00:00 8.78333 C 74.0000 %
211 12-12-2019 18:00:00 8.73333 C 73.3333 %
212 12-12-2019 19:00:00 8.76667 C 72.0000 %
213 12-12-2019 20:00:00 9.06667 C 72.0000 %
214 12-12-2019 21:00:00 9.1 C 71.8333 %
215 12-12-2019 22:00:00 9.06667 C 71.0000 %
216 12-12-2019 23:00:00 8.93333 C 71.6667 %
217 13-12-2019 00:00:00 8.9 C 72.0000 %
218 13-12-2019 01:00:00 8.8 C 72.0000 %
219 13-12-2019 02:00:00 8.76667 C 72.0000 %
220 13-12-2019 03:00:00 8.66667 C 72.0000 %
221 13-12-2019 04:00:00 8.6 C 72.0000 %
222 13-12-2019 05:00:00 8.6 C 72.0000 %
223 13-12-2019 06:00:00 8.5 C 72.0000 %
224 13-12-2019 07:00:00 8.45 C 71.8333 %
225 13-12-2019 08:00:00 8.4 C 71.6667 %
Sensor: Nr:Datum:Temp:Feuchte:
G-T/H 226 13-12-2019 09:00:00 8.4 C 72.0000 %
227 13-12-2019 10:00:00 8.4 C 72.0000 %
228 13-12-2019 11:00:00 8.4 C 72.0000 %
229 13-12-2019 12:00:00 8.4 C 72.6667 %
230 13-12-2019 13:00:00 8.45 C 73.0000 %
231 13-12-2019 14:00:00 8.5 C 73.0000 %
232 13-12-2019 15:00:00 8.46667 C 73.0000 %
233 13-12-2019 16:00:00 8.31667 C 71.5000 %
234 13-12-2019 17:00:00 8.2 C 70.0000 %
235 13-12-2019 18:00:00 8.4 C 71.0000 %
236 13-12-2019 19:00:00 8.5 C 72.0000 %
237 13-12-2019 20:00:00 8.55 C 72.8333 %
238 13-12-2019 21:00:00 8.6 C 73.0000 %
239 13-12-2019 22:00:00 8.6 C 73.0000 %
240 13-12-2019 23:00:00 8.6 C 73.0000 %
241 14-12-2019 00:00:00 8.68333 C 73.0000 %
242 14-12-2019 01:00:00 8.68333 C 73.8333 %
243 14-12-2019 02:00:00 8.7 C 74.0000 %
244 14-12-2019 03:00:00 8.7 C 74.0000 %
245 14-12-2019 04:00:00 8.7 C 74.0000 %
246 14-12-2019 05:00:00 8.7 C 74.0000 %
247 14-12-2019 06:00:00 8.7 C 74.0000 %
248 14-12-2019 07:00:00 8.8 C 74.0000 %
249 14-12-2019 08:00:00 8.8 C 74.0000 %
250 14-12-2019 09:00:00 8.8 C 74.0000 %
Sensor: Nr:Datum:Temp:Feuchte:
G-T/H 251 14-12-2019 10:00:00 8.83333 C 74.0000 %
252 14-12-2019 11:00:00 8.91667 C 73.8333 %
253 14-12-2019 12:00:00 8.98333 C 70.6667 %
254 14-12-2019 13:00:00 8.91667 C 69.6667 %
255 14-12-2019 14:00:00 8.98333 C 70.8333 %
256 14-12-2019 15:00:00 9 C 71.6667 %
257 14-12-2019 16:00:00 9.08333 C 72.0000 %
258 14-12-2019 17:00:00 9.08333 C 72.8333 %
259 14-12-2019 18:00:00 9.11667 C 73.0000 %
260 14-12-2019 19:00:00 9.15 C 73.0000 %
261 14-12-2019 20:00:00 9.18333 C 73.0000 %
262 14-12-2019 21:00:00 9.2 C 73.0000 %
263 14-12-2019 22:00:00 9.2 C 73.5000 %
264 14-12-2019 23:00:00 9.2 C 74.0000 %
265 15-12-2019 00:00:00 9.2 C 74.0000 %
266 15-12-2019 01:00:00 9.2 C 74.0000 %
267 15-12-2019 02:00:00 9.25 C 74.0000 %
268 15-12-2019 03:00:00 9.28333 C 74.0000 %
269 15-12-2019 04:00:00 9.28333 C 74.0000 %
270 15-12-2019 05:00:00 9.3 C 74.0000 %
271 15-12-2019 06:00:00 9.38333 C 74.0000 %
272 15-12-2019 07:00:00 9.46667 C 74.8333 %
273 15-12-2019 08:00:00 9.5 C 75.0000 %
274 15-12-2019 09:00:00 9.53333 C 75.0000 %
275 15-12-2019 10:00:00 9.6 C 75.0000 %
Sensor: Nr:Datum:Temp:Feuchte:
G-T/H 276 15-12-2019 11:00:00 9.6 C 75.0000 %
277 15-12-2019 12:00:00 9.65 C 75.0000 %
278 15-12-2019 13:00:00 9.7 C 75.0000 %
279 15-12-2019 14:00:00 9.71667 C 75.0000 %
280 15-12-2019 15:00:00 9.75 C 75.0000 %
281 15-12-2019 16:00:00 9.8 C 75.0000 %
282 15-12-2019 17:00:00 9.8 C 75.0000 %
283 15-12-2019 18:00:00 9.8 C 75.0000 %
284 15-12-2019 19:00:00 9.8 C 75.0000 %
285 15-12-2019 20:00:00 9.8 C 75.0000 %
286 15-12-2019 21:00:00 9.8 C 75.0000 %
287 15-12-2019 22:00:00 9.7 C 75.0000 %
288 15-12-2019 23:00:00 9.7 C 74.1667 %
289 16-12-2019 00:00:00 9.7 C 74.0000 %
290 16-12-2019 01:00:00 9.7 C 74.3333 %
291 16-12-2019 02:00:00 9.7 C 75.0000 %
292 16-12-2019 03:00:00 9.68333 C 75.0000 %
293 16-12-2019 04:00:00 9.7 C 75.0000 %
294 16-12-2019 05:00:00 9.7 C 75.0000 %
295 16-12-2019 06:00:00 9.7 C 75.0000 %
296 16-12-2019 07:00:00 9.7 C 75.0000 %
297 16-12-2019 08:00:00 9.7 C 75.0000 %
298 16-12-2019 09:00:00 9.75 C 75.8333 %
299 16-12-2019 10:00:00 9.78333 C 76.0000 %
300 16-12-2019 11:00:00 9.8 C 76.0000 %
Sensor: Nr:Datum:Temp:Feuchte:
G-T/H 301 16-12-2019 12:00:00 9.83333 C 76.0000 %
302 16-12-2019 13:00:00 9.9 C 76.0000 %
303 16-12-2019 14:00:00 9.98333 C 75.1667 %
304 16-12-2019 15:00:00 10.01667 C 75.0000 %
305 16-12-2019 16:00:00 10.1 C 75.0000 %
306 16-12-2019 17:00:00 10.1 C 75.0000 %
307 16-12-2019 18:00:00 10.13333 C 75.0000 %
308 16-12-2019 19:00:00 10.2 C 75.0000 %
309 16-12-2019 20:00:00 10.2 C 75.0000 %
310 16-12-2019 21:00:00 10.21667 C 75.0000 %
311 16-12-2019 22:00:00 10.21667 C 75.0000 %
312 16-12-2019 23:00:00 10.2 C 75.0000 %
313 17-12-2019 00:00:00 10.23333 C 75.0000 %
314 17-12-2019 01:00:00 10.23333 C 75.0000 %
315 17-12-2019 02:00:00 10.25 C 75.0000 %
316 17-12-2019 03:00:00 10.23333 C 75.0000 %
317 17-12-2019 04:00:00 10.26667 C 75.0000 %
318 17-12-2019 05:00:00 10.26667 C 75.0000 %
319 17-12-2019 06:00:00 10.26667 C 75.0000 %
320 17-12-2019 07:00:00 10.28333 C 75.0000 %
321 17-12-2019 08:00:00 10.28333 C 75.0000 %
322 17-12-2019 09:00:00 10.3 C 75.0000 %
323 17-12-2019 10:00:00 10.26667 C 75.0000 %
324 17-12-2019 11:00:00 10.3 C 75.0000 %
325 17-12-2019 12:00:00 10.3 C 75.0000 %
Sensor: Nr:Datum:Temp:Feuchte:
G-T/H 326 17-12-2019 13:00:00 10.3 C 75.6667 %
327 17-12-2019 14:00:00 10.35 C 76.0000 %
328 17-12-2019 15:00:00 10.4 C 76.0000 %
329 17-12-2019 16:00:00 10.4 C 76.0000 %
330 17-12-2019 17:00:00 10.43333 C 76.0000 %
331 17-12-2019 18:00:00 10.61667 C 76.0000 %
332 17-12-2019 19:00:00 10.98333 C 75.6667 %
333 17-12-2019 20:00:00 10.81667 C 76.0000 %
334 17-12-2019 21:00:00 10.81667 C 76.0000 %
335 17-12-2019 22:00:00 10.88333 C 76.0000 %
336 17-12-2019 23:00:00 10.91667 C 76.6667 %
337 18-12-2019 00:00:00 11 C 76.0000 %
338 18-12-2019 01:00:00 11 C 76.0000 %
339 18-12-2019 02:00:00 11.03333 C 76.0000 %
340 18-12-2019 03:00:00 11.08333 C 76.0000 %
341 18-12-2019 04:00:00 11.1 C 76.0000 %
342 18-12-2019 05:00:00 11.1 C 76.0000 %
343 18-12-2019 06:00:00 11.1 C 76.0000 %
344 18-12-2019 07:00:00 11.1 C 76.0000 %
345 18-12-2019 08:00:00 11.1 C 76.0000 %
346 18-12-2019 09:00:00 11.1 C 76.0000 %
347 18-12-2019 10:00:00 11.1 C 76.0000 %
348 18-12-2019 11:00:00 11.06667 C 76.0000 %
349 18-12-2019 12:00:00 11.08333 C 76.0000 %
350 18-12-2019 13:00:00 11.01667 C 76.0000 %
Sensor: Nr:Datum:Temp:Feuchte:
G-T/H 351 18-12-2019 14:00:00 10.98333 C 75.3333 %
352 18-12-2019 15:00:00 10.98333 C 75.1667 %
353 18-12-2019 16:00:00 10.88333 C 76.0000 %
354 18-12-2019 17:00:00 10.8 C 75.1667 %
355 18-12-2019 18:00:00 10.76667 C 75.0000 %
356 18-12-2019 19:00:00 10.7 C 75.0000 %
357 18-12-2019 20:00:00 10.7 C 75.0000 %
358 18-12-2019 21:00:00 10.6 C 74.0000 %
359 18-12-2019 22:00:00 10.45 C 74.0000 %
360 18-12-2019 23:00:00 10.35 C 73.0000 %
361 19-12-2019 00:00:00 10.2 C 72.5000 %
362 19-12-2019 01:00:00 10.13333 C 72.0000 %
363 19-12-2019 02:00:00 10.03333 C 72.0000 %
364 19-12-2019 03:00:00 9.95 C 71.5000 %
365 19-12-2019 04:00:00 9.9 C 72.0000 %
366 19-12-2019 05:00:00 9.86667 C 72.8333 %
367 19-12-2019 06:00:00 9.8 C 73.0000 %
368 19-12-2019 07:00:00 9.78333 C 73.0000 %
369 19-12-2019 08:00:00 9.71667 C 73.0000 %
370 19-12-2019 09:00:00 9.7 C 73.0000 %
371 19-12-2019 10:00:00 9.66667 C 73.0000 %
372 19-12-2019 11:00:00 9.66667 C 74.0000 %
373 19-12-2019 12:00:00 9.63333 C 74.0000 %
374 19-12-2019 13:00:00 9.6 C 74.0000 %
375 19-12-2019 14:00:00 9.63333 C 74.0000 %
Sensor: Nr:Datum:Temp:Feuchte:
G-T/H 376 19-12-2019 15:00:00 9.63333 C 74.1667 %
377 19-12-2019 16:00:00 9.66667 C 75.0000 %
378 19-12-2019 17:00:00 9.7 C 75.0000 %
379 19-12-2019 18:00:00 9.7 C 75.0000 %
380 19-12-2019 19:00:00 9.68333 C 75.0000 %
381 19-12-2019 20:00:00 9.7 C 75.0000 %
382 19-12-2019 21:00:00 9.7 C 75.0000 %
383 19-12-2019 22:00:00 9.65 C 75.0000 %
384 19-12-2019 23:00:00 9.68333 C 75.0000 %
385 20-12-2019 00:00:00 9.65 C 75.0000 %
386 20-12-2019 01:00:00 9.61667 C 74.8333 %
387 20-12-2019 02:00:00 9.6 C 74.0000 %
388 20-12-2019 03:00:00 9.6 C 74.0000 %
389 20-12-2019 04:00:00 9.58333 C 74.0000 %
390 20-12-2019 05:00:00 9.55 C 74.0000 %
391 20-12-2019 06:00:00 9.51667 C 74.0000 %
392 20-12-2019 07:00:00 9.51667 C 74.0000 %
393 20-12-2019 08:00:00 9.5 C 74.5000 %
394 20-12-2019 09:00:00 9.51667 C 75.0000 %
395 20-12-2019 10:00:00 9.53333 C 75.0000 %
396 20-12-2019 11:00:00 9.58333 C 75.0000 %
397 20-12-2019 12:00:00 9.55 C 75.0000 %
398 20-12-2019 13:00:00 9.6 C 75.0000 %
399 20-12-2019 14:00:00 9.63333 C 75.8333 %
400 20-12-2019 15:00:00 9.7 C 76.0000 %
Sensor: Nr:Datum:Temp:Feuchte:
G-T/H 401 20-12-2019 16:00:00 9.71667 C 76.0000 %
402 20-12-2019 17:00:00 9.8 C 76.0000 %
403 20-12-2019 18:00:00 9.85 C 76.0000 %
404 20-12-2019 19:00:00 9.9 C 76.6667 %
405 20-12-2019 20:00:00 9.96667 C 75.6667 %
406 20-12-2019 21:00:00 10 C 75.0000 %
407 20-12-2019 22:00:00 10.08333 C 75.0000 %
408 20-12-2019 23:00:00 10.08333 C 75.0000 %
409 21-12-2019 00:00:00 10.1 C 75.0000 %
410 21-12-2019 01:00:00 10.1 C 75.0000 %
411 21-12-2019 02:00:00 10.16667 C 75.0000 %
412 21-12-2019 03:00:00 10.2 C 75.0000 %
413 21-12-2019 04:00:00 10.2 C 75.0000 %
414 21-12-2019 05:00:00 10.2 C 75.0000 %
415 21-12-2019 06:00:00 10.16667 C 75.0000 %
416 21-12-2019 07:00:00 10.1 C 75.0000 %
417 21-12-2019 08:00:00 10.1 C 74.0000 %
418 21-12-2019 09:00:00 10.08333 C 74.0000 %
419 21-12-2019 10:00:00 10 C 74.0000 %
420 21-12-2019 11:00:00 10.01667 C 74.0000 %
421 21-12-2019 12:00:00 10.11667 C 74.0000 %
422 21-12-2019 13:00:00 10.01667 C 74.0000 %
423 21-12-2019 14:00:00 10 C 74.0000 %
424 21-12-2019 15:00:00 10 C 74.0000 %
425 21-12-2019 16:00:00 9.98333 C 74.3333 %
Sensor: Nr:Datum:Temp:Feuchte:
G-T/H 426 21-12-2019 17:00:00 10 C 74.8333 %
427 21-12-2019 18:00:00 10 C 75.0000 %
428 21-12-2019 19:00:00 10 C 75.0000 %
429 21-12-2019 20:00:00 10 C 75.0000 %
430 21-12-2019 21:00:00 10 C 75.0000 %
431 21-12-2019 22:00:00 10 C 74.8333 %
432 21-12-2019 23:00:00 10 C 74.0000 %
433 22-12-2019 00:00:00 10 C 74.0000 %
434 22-12-2019 01:00:00 10 C 74.0000 %
435 22-12-2019 02:00:00 10 C 74.0000 %
436 22-12-2019 03:00:00 10 C 74.0000 %
437 22-12-2019 04:00:00 10 C 74.8333 %
438 22-12-2019 05:00:00 10 C 75.0000 %
439 22-12-2019 06:00:00 10 C 75.0000 %
440 22-12-2019 07:00:00 10 C 75.0000 %
441 22-12-2019 08:00:00 10 C 75.0000 %
442 22-12-2019 09:00:00 10 C 75.0000 %
443 22-12-2019 10:00:00 10 C 75.0000 %
444 22-12-2019 11:00:00 10 C 75.0000 %
445 22-12-2019 12:00:00 10.05 C 75.0000 %
446 22-12-2019 13:00:00 10.1 C 75.0000 %
447 22-12-2019 14:00:00 10.1 C 75.0000 %
448 22-12-2019 15:00:00 10.2 C 76.0000 %
449 22-12-2019 16:00:00 10.23333 C 76.0000 %
450 22-12-2019 17:00:00 10.3 C 76.0000 %
Sensor: Nr:Datum:Temp:Feuchte:
G-T/H 451 22-12-2019 18:00:00 10.31667 C 76.0000 %
452 22-12-2019 19:00:00 10.4 C 76.0000 %
453 22-12-2019 20:00:00 10.4 C 76.0000 %
454 22-12-2019 21:00:00 10.4 C 76.0000 %
455 22-12-2019 22:00:00 10.4 C 75.8333 %
456 22-12-2019 23:00:00 10.4 C 75.0000 %
457 23-12-2019 00:00:00 10.4 C 75.0000 %
458 23-12-2019 01:00:00 10.4 C 75.0000 %
459 23-12-2019 02:00:00 10.33333 C 75.0000 %
460 23-12-2019 03:00:00 10.3 C 75.0000 %
461 23-12-2019 04:00:00 10.3 C 75.0000 %
462 23-12-2019 05:00:00 10.25 C 75.0000 %
463 23-12-2019 06:00:00 10.2 C 75.0000 %
464 23-12-2019 07:00:00 10.2 C 75.0000 %
465 23-12-2019 08:00:00 10.2 C 75.0000 %
466 23-12-2019 09:00:00 10.2 C 75.0000 %
467 23-12-2019 10:00:00 10.2 C 75.0000 %
468 23-12-2019 11:00:00 10.2 C 75.0000 %
469 23-12-2019 12:00:00 10.23333 C 75.0000 %
470 23-12-2019 13:00:00 10.3 C 75.6667 %
471 23-12-2019 14:00:00 10.3 C 76.0000 %
472 23-12-2019 15:00:00 10.3 C 76.0000 %
473 23-12-2019 16:00:00 10.33333 C 75.6667 %
474 23-12-2019 17:00:00 10.4 C 76.0000 %
475 23-12-2019 18:00:00 10.4 C 76.0000 %
Sensor: Nr:Datum:Temp:Feuchte:
G-T/H 476 23-12-2019 19:00:00 10.4 C 76.0000 %
477 23-12-2019 20:00:00 10.4 C 76.0000 %
478 23-12-2019 21:00:00 10.4 C 76.0000 %
479 23-12-2019 22:00:00 10.33333 C 75.5000 %
480 23-12-2019 23:00:00 10.31667 C 75.0000 %
481 24-12-2019 00:00:00 10.3 C 75.0000 %
482 24-12-2019 01:00:00 10.26667 C 75.0000 %
483 24-12-2019 02:00:00 10.2 C 75.0000 %
484 24-12-2019 03:00:00 10.2 C 75.0000 %
485 24-12-2019 04:00:00 10.18333 C 75.0000 %
486 24-12-2019 05:00:00 10.11667 C 75.0000 %
487 24-12-2019 06:00:00 10.08333 C 74.6667 %
488 24-12-2019 07:00:00 10.1 C 74.0000 %
489 24-12-2019 08:00:00 10.03333 C 74.0000 %
490 24-12-2019 09:00:00 10 C 74.5000 %
491 24-12-2019 10:00:00 10 C 75.0000 %
492 24-12-2019 11:00:00 10 C 75.0000 %
493 24-12-2019 12:00:00 10 C 75.0000 %
494 24-12-2019 13:00:00 10.03333 C 75.0000 %
495 24-12-2019 14:00:00 10.06667 C 75.0000 %
496 24-12-2019 15:00:00 10.08333 C 75.0000 %
497 24-12-2019 16:00:00 10.1 C 75.0000 %
498 24-12-2019 17:00:00 10.11667 C 75.0000 %
499 24-12-2019 18:00:00 10.2 C 75.0000 %
500 24-12-2019 19:00:00 10.2 C 75.1667 %
Sensor: Nr:Datum:Temp:Feuchte:
G-T/H 501 24-12-2019 20:00:00 10.16667 C 75.0000 %
502 24-12-2019 21:00:00 10.2 C 75.0000 %
503 24-12-2019 22:00:00 10.18333 C 75.1667 %
504 24-12-2019 23:00:00 10.2 C 76.0000 %
505 25-12-2019 00:00:00 10.2 C 76.0000 %
506 25-12-2019 01:00:00 10.2 C 76.0000 %
507 25-12-2019 02:00:00 10.2 C 76.0000 %
508 25-12-2019 03:00:00 10.2 C 76.0000 %
509 25-12-2019 04:00:00 10.2 C 76.0000 %
510 25-12-2019 05:00:00 10.2 C 76.0000 %
511 25-12-2019 06:00:00 10.2 C 76.0000 %
512 25-12-2019 07:00:00 10.2 C 76.0000 %
513 25-12-2019 08:00:00 10.2 C 76.0000 %
514 25-12-2019 09:00:00 10.2 C 76.0000 %
515 25-12-2019 10:00:00 10.21667 C 76.0000 %
516 25-12-2019 11:00:00 10.26667 C 76.0000 %
517 25-12-2019 12:00:00 10.26667 C 76.0000 %
518 25-12-2019 13:00:00 10.25 C 76.0000 %
519 25-12-2019 14:00:00 10.3 C 76.0000 %
520 25-12-2019 15:00:00 10.28333 C 76.0000 %
521 25-12-2019 16:00:00 10.3 C 76.0000 %
522 25-12-2019 17:00:00 10.3 C 76.0000 %
523 25-12-2019 18:00:00 10.3 C 76.0000 %
524 25-12-2019 19:00:00 10.3 C 76.0000 %
525 25-12-2019 20:00:00 10.3 C 76.0000 %
Sensor: Nr:Datum:Temp:Feuchte:
G-T/H 526 25-12-2019 21:00:00 10.28333 C 76.0000 %
527 25-12-2019 22:00:00 10.28333 C 76.0000 %
528 25-12-2019 23:00:00 10.21667 C 75.1667 %
529 26-12-2019 00:00:00 10.2 C 75.0000 %
530 26-12-2019 01:00:00 10.2 C 75.0000 %
531 26-12-2019 02:00:00 10.15 C 75.0000 %
532 26-12-2019 03:00:00 10.15 C 75.0000 %
533 26-12-2019 04:00:00 10.08333 C 75.0000 %
534 26-12-2019 05:00:00 10.01667 C 74.1667 %
535 26-12-2019 06:00:00 10 C 74.0000 %
536 26-12-2019 07:00:00 10 C 74.0000 %
537 26-12-2019 08:00:00 9.9 C 75.0000 %
538 26-12-2019 09:00:00 9.9 C 75.0000 %
539 26-12-2019 10:00:00 9.9 C 75.0000 %
540 26-12-2019 11:00:00 9.9 C 75.0000 %
541 26-12-2019 12:00:00 9.9 C 75.3333 %
542 26-12-2019 13:00:00 9.86667 C 76.0000 %
543 26-12-2019 14:00:00 9.86667 C 76.0000 %
544 26-12-2019 15:00:00 9.85 C 76.0000 %
545 26-12-2019 16:00:00 9.81667 C 76.0000 %
546 26-12-2019 17:00:00 9.8 C 76.0000 %
547 26-12-2019 18:00:00 9.8 C 76.0000 %
548 26-12-2019 19:00:00 9.8 C 76.0000 %
549 26-12-2019 20:00:00 9.8 C 76.0000 %
550 26-12-2019 21:00:00 9.8 C 75.6667 %
Sensor: Nr:Datum:Temp:Feuchte:
G-T/H 551 26-12-2019 22:00:00 9.8 C 75.0000 %
552 26-12-2019 23:00:00 9.75 C 75.0000 %
553 27-12-2019 00:00:00 9.7 C 75.0000 %
554 27-12-2019 01:00:00 9.7 C 75.0000 %
555 27-12-2019 02:00:00 9.71667 C 75.0000 %
556 27-12-2019 03:00:00 9.7 C 75.0000 %
557 27-12-2019 04:00:00 9.7 C 75.0000 %
558 27-12-2019 05:00:00 9.7 C 75.0000 %
559 27-12-2019 06:00:00 9.7 C 75.5000 %
560 27-12-2019 07:00:00 9.7 C 76.0000 %
561 27-12-2019 08:00:00 9.7 C 76.0000 %
562 27-12-2019 09:00:00 9.7 C 76.0000 %
563 27-12-2019 10:00:00 9.68333 C 76.0000 %
564 27-12-2019 11:00:00 9.68333 C 76.0000 %
565 27-12-2019 12:00:00 9.7 C 76.0000 %
566 27-12-2019 13:00:00 9.68333 C 76.0000 %
567 27-12-2019 14:00:00 9.7 C 76.0000 %
568 27-12-2019 15:00:00 9.7 C 76.0000 %
569 27-12-2019 16:00:00 9.7 C 76.0000 %
570 27-12-2019 17:00:00 9.7 C 76.0000 %
571 27-12-2019 18:00:00 9.7 C 76.0000 %
572 27-12-2019 19:00:00 9.7 C 76.0000 %
573 27-12-2019 20:00:00 9.7 C 75.6667 %
574 27-12-2019 21:00:00 9.7 C 75.0000 %
575 27-12-2019 22:00:00 9.7 C 75.0000 %
Sensor: Nr:Datum:Temp:Feuchte:
G-T/H 576 27-12-2019 23:00:00 9.6 C 74.8333 %
577 28-12-2019 00:00:00 9.58333 C 74.0000 %
578 28-12-2019 01:00:00 9.51667 C 74.0000 %
579 28-12-2019 02:00:00 9.38333 C 73.0000 %
580 28-12-2019 03:00:00 9.28333 C 73.0000 %
581 28-12-2019 04:00:00 9.18333 C 72.1667 %
582 28-12-2019 05:00:00 9.06667 C 72.0000 %
583 28-12-2019 06:00:00 8.98333 C 71.8333 %
584 28-12-2019 07:00:00 8.85 C 72.0000 %
585 28-12-2019 08:00:00 8.73333 C 72.0000 %
586 28-12-2019 09:00:00 7.8 C 68.5000 %
587 28-12-2019 10:00:00 6.51667 C 61.6667 %
588 28-12-2019 11:00:00 8.21667 C 65.1667 %
589 28-12-2019 12:00:00 8.3 C 67.6667 %
590 28-12-2019 13:00:00 8.2 C 69.0000 %
591 28-12-2019 14:00:00 8.16667 C 69.8333 %
592 28-12-2019 15:00:00 8.08333 C 70.0000 %
593 28-12-2019 16:00:00 7.95 C 68.8333 %
594 28-12-2019 17:00:00 8 C 69.0000 %
595 28-12-2019 18:00:00 7.96667 C 69.6667 %
596 28-12-2019 19:00:00 7.91667 C 70.8333 %
597 28-12-2019 20:00:00 7.9 C 71.0000 %
598 28-12-2019 21:00:00 7.86667 C 71.0000 %
599 28-12-2019 22:00:00 7.8 C 71.0000 %
600 28-12-2019 23:00:00 7.76667 C 70.5000 %
Sensor: Nr:Datum:Temp:Feuchte:
G-T/H 601 29-12-2019 00:00:00 7.7 C 70.0000 %
602 29-12-2019 01:00:00 7.6 C 70.0000 %
603 29-12-2019 02:00:00 7.51667 C 70.0000 %
604 29-12-2019 03:00:00 7.5 C 70.0000 %
605 29-12-2019 04:00:00 7.41667 C 69.8333 %
606 29-12-2019 05:00:00 7.36667 C 69.0000 %
607 29-12-2019 06:00:00 7.3 C 69.0000 %
608 29-12-2019 07:00:00 7.23333 C 69.0000 %
609 29-12-2019 08:00:00 7.15 C 69.0000 %
610 29-12-2019 09:00:00 7.18333 C 69.0000 %
611 29-12-2019 10:00:00 7.35 C 69.0000 %
612 29-12-2019 11:00:00 7.23333 C 69.0000 %
613 29-12-2019 12:00:00 7.2 C 69.1667 %
614 29-12-2019 13:00:00 7.1 C 70.0000 %
615 29-12-2019 14:00:00 7.1 C 70.0000 %
616 29-12-2019 15:00:00 7.1 C 70.0000 %
617 29-12-2019 16:00:00 7.1 C 70.0000 %
618 29-12-2019 17:00:00 7.01667 C 70.0000 %
619 29-12-2019 18:00:00 7.01667 C 70.0000 %
620 29-12-2019 19:00:00 7 C 70.0000 %
621 29-12-2019 20:00:00 7 C 70.0000 %
622 29-12-2019 21:00:00 7 C 70.0000 %
623 29-12-2019 22:00:00 6.96667 C 70.1667 %
624 29-12-2019 23:00:00 7.01667 C 70.3333 %
625 30-12-2019 00:00:00 7.06667 C 70.0000 %
Sensor: Nr:Datum:Temp:Feuchte:
G-T/H 626 30-12-2019 01:00:00 7 C 70.0000 %
627 30-12-2019 02:00:00 6.96667 C 70.3333 %
628 30-12-2019 03:00:00 7.06667 C 69.3333 %
629 30-12-2019 04:00:00 6.96667 C 69.3333 %
630 30-12-2019 05:00:00 6.96667 C 69.6667 %
631 30-12-2019 06:00:00 7.1 C 69.0000 %
632 30-12-2019 07:00:00 6.91667 C 69.8333 %
633 30-12-2019 08:00:00 6.85 C 70.0000 %
634 30-12-2019 09:00:00 7.11667 C 68.5000 %
635 30-12-2019 10:00:00 6.95 C 68.5000 %
636 30-12-2019 11:00:00 6.83333 C 69.0000 %
637 30-12-2019 12:00:00 7.06667 C 68.6667 %
638 30-12-2019 13:00:00 6.98333 C 68.1667 %
639 30-12-2019 14:00:00 6.86667 C 69.3333 %
640 30-12-2019 15:00:00 6.9 C 69.8333 %
641 30-12-2019 16:00:00 7.45 C 69.0000 %
642 30-12-2019 17:00:00 7.86667 C 69.0000 %
643 30-12-2019 18:00:00 7.9 C 69.0000 %
644 30-12-2019 19:00:00 7.8 C 68.5000 %
645 30-12-2019 20:00:00 7.53333 C 68.0000 %
646 30-12-2019 21:00:00 7.38333 C 68.0000 %
647 30-12-2019 22:00:00 7.3 C 68.0000 %
648 30-12-2019 23:00:00 7.21667 C 68.1667 %
649 31-12-2019 00:00:00 7.11667 C 69.0000 %
650 31-12-2019 01:00:00 7.03333 C 69.0000 %
Sensor: Nr:Datum:Temp:Feuchte:
G-T/H 651 31-12-2019 02:00:00 6.95 C 69.5000 %
652 31-12-2019 03:00:00 6.86667 C 70.0000 %
653 31-12-2019 04:00:00 6.95 C 69.3333 %
654 31-12-2019 05:00:00 6.88333 C 69.1667 %
655 31-12-2019 06:00:00 6.8 C 70.0000 %
656 31-12-2019 07:00:00 6.7 C 70.0000 %
657 31-12-2019 08:00:00 6.71667 C 70.0000 %
658 31-12-2019 09:00:00 7.26667 C 68.5000 %
659 31-12-2019 10:00:00 7.05 C 68.6667 %
660 31-12-2019 11:00:00 6.9 C 69.5000 %
661 31-12-2019 12:00:00 6.9 C 70.0000 %
662 31-12-2019 13:00:00 6.86667 C 70.6667 %
663 31-12-2019 14:00:00 6.83333 C 71.0000 %
664 31-12-2019 15:00:00 6.88333 C 71.0000 %
665 31-12-2019 16:00:00 6.88333 C 71.0000 %
666 31-12-2019 17:00:00 6.85 C 71.0000 %
667 31-12-2019 18:00:00 6.88333 C 69.3333 %
668 31-12-2019 19:00:00 7.13333 C 69.1667 %
669 31-12-2019 20:00:00 7.01667 C 70.0000 %
670 31-12-2019 21:00:00 7 C 70.3333 %
671 31-12-2019 22:00:00 6.98333 C 71.1667 %
672 31-12-2019 23:00:00 6.9 C 72.0000 %
673 01-01-2020 00:00:00 6.9 C 72.0000 %
674 01-01-2020 01:00:00 6.9 C 72.0000 %
675 01-01-2020 02:00:00 6.9 C 72.0000 %
Sensor: Nr:Datum:Temp:Feuchte:
G-T/H 676 01-01-2020 03:00:00 6.9 C 72.0000 %
677 01-01-2020 04:00:00 6.9 C 72.0000 %
678 01-01-2020 05:00:00 6.9 C 72.0000 %
679 01-01-2020 06:00:00 6.9 C 72.0000 %
680 01-01-2020 07:00:00 6.9 C 72.0000 %
681 01-01-2020 08:00:00 6.9 C 72.0000 %
682 01-01-2020 09:00:00 6.91667 C 72.3333 %
683 01-01-2020 10:00:00 6.96667 C 72.3333 %
684 01-01-2020 11:00:00 7 C 72.0000 %
685 01-01-2020 12:00:00 7 C 72.0000 %
686 01-01-2020 13:00:00 7 C 71.5000 %
687 01-01-2020 14:00:00 7.05 C 71.6667 %
688 01-01-2020 15:00:00 6.91667 C 69.3333 %
689 01-01-2020 16:00:00 8.23333 C 68.6667 %
690 01-01-2020 17:00:00 8.15 C 69.0000 %
691 01-01-2020 18:00:00 8.01667 C 68.8333 %
692 01-01-2020 19:00:00 7.95 C 68.5000 %
693 01-01-2020 20:00:00 7.73333 C 69.0000 %
694 01-01-2020 21:00:00 7.6 C 69.0000 %
695 01-01-2020 22:00:00 7.5 C 69.0000 %
696 01-01-2020 23:00:00 7.41667 C 69.0000 %

Maximal/Minimal-Werte vom 04.12.2019 - 01.01.2020

Sensor Min Max Avg
Temp
(Aussen-T/F)
-5 °C
29-12-2019  07:23:17
13.8 °C
17-12-2019  17:52:17
4.3 °C
Feuchte
(Aussen-T/F)
20 %
07-12-2019  13:11:17
46 %
10-12-2019  04:51:17
35.09 %
Temp
(G-T/H)
5.1 °C
28-12-2019  10:13:17
11.1 °C
17-12-2019  19:12:17
9.17 °C
Feuchte
(G-T/H)
61 %
28-12-2019  09:53:17
77 %
17-12-2019  23:12:17
73.27 %

Die Daten stammen von einer Davis Vantage Pro 2 Wetter-Station und werden unter Linux mit der Software wview2wettercgi und aufbereitet. Alle Angaben erfolgen ohne Gewähr für ihre Vollständigkeit oder Richtigkeit.
Kontakt: Rainer Krienke krienke@uni-koblenz.de . Meine Webseiten an der Uni Koblenz oder privat.
Version: $Revision: 0.78 $